| time (UTC) | temp F | wind direction | speed MPH | gust MPH | rain 1hr in | rain 24hr in | rain mn in | humidity % | barometer mb |
| 20260505073056 | 71 | 34 | 3.0 | 6.0 | 0.00 | 0.00 | 0.00 | 88 | 1007.6 |
| 20260505072955 | 71 | 35 | 3.0 | 6.0 | 0.00 | 0.00 | 0.00 | 88 | 1007.6 |
| 20260505072854 | 71 | 25 | 4.0 | 6.0 | 0.00 | 0.00 | 0.00 | 88 | 1007.7 |
| 20260505072755 | 71 | 25 | 4.0 | 6.0 | 0.00 | 0.00 | 0.00 | 88 | 1007.7 |
| 20260505072657 | 71 | 39 | 3.0 | 5.0 | 0.00 | 0.00 | 0.00 | 88 | 1007.7 |
| 20260505072554 | 71 | 38 | 2.0 | 5.0 | 0.00 | 0.00 | 0.00 | 88 | 1007.7 |
| 20260505072455 | 71 | 34 | 2.0 | 5.0 | 0.00 | 0.00 | 0.00 | 88 | 1007.8 |
| 20260505072355 | 71 | 45 | 2.0 | 5.0 | 0.00 | 0.00 | 0.00 | 88 | 1007.7 |
| 20260505072254 | 71 | 38 | 2.0 | 4.0 | 0.00 | 0.00 | 0.00 | 88 | 1007.7 |
| 20260505072155 | 71 | 39 | 2.0 | 4.0 | 0.00 | 0.00 | 0.00 | 88 | 1007.8 |
| 20260505072054 | 71 | 34 | 1.0 | 4.0 | 0.00 | 0.00 | 0.00 | 88 | 1007.7 |
| 20260505071955 | 71 | 34 | 2.0 | 4.0 | 0.00 | 0.00 | 0.00 | 88 | 1007.8 |
| 20260505071854 | 71 | 35 | 2.0 | 5.0 | 0.00 | 0.00 | 0.00 | 88 | 1007.8 |
| 20260505071754 | 71 | 39 | 1.0 | 5.0 | 0.00 | 0.00 | 0.00 | 88 | 1007.9 |
| 20260505071655 | 71 | 37 | 1.0 | 5.0 | 0.00 | 0.00 | 0.00 | 88 | 1007.9 |
| 20260505071555 | 71 | 35 | 1.0 | 5.0 | 0.00 | 0.00 | 0.00 | 88 | 1007.9 |
| 20260505071455 | 71 | 38 | 2.0 | 5.0 | 0.00 | 0.00 | 0.00 | 88 | 1007.9 |
| 20260505071355 | 71 | 45 | 2.0 | 5.0 | 0.00 | 0.00 | 0.00 | 87 | 1007.8 |
| 20260505071256 | 71 | 49 | 2.0 | 5.0 | 0.00 | 0.00 | 0.00 | 88 | 1007.9 |
| 20260505071155 | 71 | 49 | 2.0 | 7.0 | 0.00 | 0.00 | 0.00 | 88 | 1007.8 |
| 20260505071055 | 71 | 49 | 2.0 | 7.0 | 0.00 | 0.00 | 0.00 | 88 | 1007.8 |
| 20260505070935 | 71 | 31 | 2.0 | 7.0 | 0.00 | 0.00 | 0.00 | 88 | 1007.9 |
| 20260505070833 | 71 | 45 | 2.0 | 7.0 | 0.00 | 0.00 | 0.00 | 88 | 1007.9 |
| 20260505070731 | 71 | 34 | 2.0 | 7.0 | 0.00 | 0.00 | 0.00 | 87 | 1007.8 |
| 20260505070630 | 71 | 27 | 2.0 | 7.0 | 0.00 | 0.00 | 0.00 | 87 | 1007.8 |
| 20260505070532 | 71 | 49 | 2.0 | 7.0 | 0.00 | 0.00 | 0.00 | 87 | 1007.8 |
| 20260505070433 | 71 | 31 | 3.0 | 7.0 | 0.00 | 0.00 | 0.00 | 87 | 1007.8 |
| 20260505070331 | 71 | 47 | 3.0 | 7.0 | 0.00 | 0.00 | 0.00 | 87 | 1007.9 |
| 20260505070231 | 71 | 44 | 3.0 | 7.0 | 0.00 | 0.00 | 0.00 | 87 | 1007.9 |
| 20260505070132 | 71 | 45 | 3.0 | 7.0 | 0.00 | 0.00 | 0.00 | 87 | 1008.0 |
| 20260505070033 | 71 | 28 | 2.0 | 6.0 | 0.00 | 0.00 | 0.00 | 87 | 1007.9 |
| 20260505065931 | 71 | 38 | 2.0 | 10.0 | 0.00 | 0.00 | 0.00 | 87 | 1008.0 |
| 20260505065832 | 71 | 27 | 3.0 | 10.0 | 0.00 | 0.00 | 0.00 | 87 | 1008.0 |
| 20260505065732 | 71 | 30 | 3.0 | 10.0 | 0.00 | 0.00 | 0.00 | 87 | 1007.9 |
| 20260505065632 | 71 | 49 | 4.0 | 10.0 | 0.00 | 0.00 | 0.00 | 87 | 1007.9 |
| 20260505065531 | 71 | 45 | 4.0 | 10.0 | 0.00 | 0.00 | 0.00 | 87 | 1007.9 |
| 20260505065434 | 71 | 37 | 4.0 | 10.0 | 0.00 | 0.00 | 0.00 | 87 | 1007.9 |
| 20260505065333 | 71 | 24 | 3.0 | 10.0 | 0.00 | 0.00 | 0.00 | 87 | 1008.0 |
| 20260505065232 | 71 | 31 | 3.0 | 10.0 | 0.00 | 0.00 | 0.00 | 87 | 1007.9 |
| 20260505065131 | 71 | 42 | 4.0 | 10.0 | 0.00 | 0.00 | 0.00 | 87 | 1007.9 |
| 20260505065030 | 71 | 38 | 4.0 | 10.0 | 0.00 | 0.00 | 0.00 | 87 | 1007.9 |
| 20260505064931 | 71 | 39 | 4.0 | 7.0 | 0.00 | 0.00 | 0.00 | 87 | 1008.0 |
| 20260505064831 | 71 | 49 | 3.0 | 7.0 | 0.00 | 0.00 | 0.00 | 87 | 1008.0 |
| 20260505064732 | 71 | 27 | 2.0 | 7.0 | 0.00 | 0.00 | 0.00 | 87 | 1008.0 |
| 20260505064632 | 71 | 31 | 3.0 | 7.0 | 0.00 | 0.00 | 0.00 | 87 | 1008.0 |
| 20260505064530 | 71 | 28 | 4.0 | 7.0 | 0.00 | 0.00 | 0.00 | 87 | 1008.0 |
| 20260505064430 | 71 | 39 | 4.0 | 7.0 | 0.00 | 0.00 | 0.00 | 87 | 1008.0 |
| 20260505064332 | 71 | 30 | 2.0 | 7.0 | 0.00 | 0.00 | 0.00 | 87 | 1008.1 |
| 20260505064232 | 71 | 38 | 2.0 | 7.0 | 0.00 | 0.00 | 0.00 | 87 | 1008.1 |
| 20260505064131 | 71 | 32 | 3.0 | 7.0 | 0.00 | 0.00 | 0.00 | 87 | 1008.1 |
| 20260505064032 | 71 | 44 | 3.0 | 7.0 | 0.00 | 0.00 | 0.00 | 87 | 1008.2 |
| 20260505063931 | 71 | 34 | 3.0 | 7.0 | 0.00 | 0.00 | 0.00 | 87 | 1008.2 |
| 20260505063831 | 71 | 44 | 3.0 | 7.0 | 0.00 | 0.00 | 0.00 | 87 | 1008.3 |
| 20260505063732 | 71 | 38 | 3.0 | 7.0 | 0.00 | 0.00 | 0.00 | 87 | 1008.2 |
| 20260505063632 | 71 | 49 | 3.0 | 7.0 | 0.00 | 0.00 | 0.00 | 87 | 1008.3 |
| 20260505063530 | 71 | 41 | 2.0 | 7.0 | 0.00 | 0.00 | 0.00 | 87 | 1008.2 |
| 20260505063431 | 71 | 47 | 2.0 | 9.0 | 0.00 | 0.00 | 0.00 | 87 | 1008.3 |
| 20260505063333 | 71 | 45 | 3.0 | 9.0 | 0.00 | 0.00 | 0.00 | 87 | 1008.4 |
| 20260505063231 | 71 | 37 | 3.0 | 9.0 | 0.00 | 0.00 | 0.00 | 87 | 1008.4 |
| 20260505063131 | 71 | 44 | 4.0 | 9.0 | 0.00 | 0.00 | 0.00 | 87 | 1008.4 |
| 20260505063032 | 71 | 44 | 4.0 | 9.0 | 0.00 | 0.00 | 0.00 | 87 | 1008.3 |
| 20260505062932 | 71 | 37 | 3.0 | 9.0 | 0.00 | 0.00 | 0.00 | 87 | 1008.3 |
| 20260505062831 | 71 | 52 | 2.0 | 9.0 | 0.00 | 0.00 | 0.00 | 87 | 1008.3 |
| 20260505062731 | 71 | 45 | 3.0 | 9.0 | 0.00 | 0.00 | 0.00 | 87 | 1008.3 |
| 20260505062633 | 71 | 39 | 4.0 | 9.0 | 0.00 | 0.00 | 0.00 | 87 | 1008.3 |
| 20260505062531 | 71 | 45 | 5.0 | 9.0 | 0.00 | 0.00 | 0.00 | 87 | 1008.4 |
| 20260505062431 | 71 | 31 | 4.0 | 9.0 | 0.00 | 0.00 | 0.00 | 87 | 1008.4 |
| 20260505062331 | 71 | 54 | 3.0 | 7.0 | 0.00 | 0.00 | 0.00 | 87 | 1008.4 |
| 20260505062230 | 71 | 35 | 4.0 | 7.0 | 0.00 | 0.00 | 0.00 | 87 | 1008.4 |
| 20260505062131 | 71 | 38 | 4.0 | 7.0 | 0.00 | 0.00 | 0.00 | 87 | 1008.5 |
| 20260505062032 | 71 | 41 | 4.0 | 7.0 | 0.00 | 0.00 | 0.00 | 87 | 1008.5 |
| 20260505061931 | 71 | 47 | 4.0 | 7.0 | 0.00 | 0.00 | 0.00 | 87 | 1008.5 |
| 20260505061831 | 71 | 37 | 4.0 | 7.0 | 0.00 | 0.00 | 0.00 | 87 | 1008.5 |
| 20260505061731 | 71 | 45 | 4.0 | 7.0 | 0.00 | 0.00 | 0.00 | 87 | 1008.5 |
| 20260505061632 | 71 | 48 | 3.0 | 7.0 | 0.00 | 0.00 | 0.00 | 86 | 1008.6 |
| 20260505061532 | 71 | 41 | 2.0 | 7.0 | 0.00 | 0.00 | 0.00 | 86 | 1008.5 |
| 20260505061431 | 71 | 34 | 2.0 | 7.0 | 0.00 | 0.00 | 0.00 | 86 | 1008.6 |
| 20260505061332 | 71 | 18 | 3.0 | 7.0 | 0.00 | 0.00 | 0.00 | 86 | 1008.6 |
| 20260505061233 | 71 | 42 | 3.0 | 7.0 | 0.00 | 0.00 | 0.00 | 86 | 1008.6 |
| 20260505061130 | 71 | 35 | 3.0 | 7.0 | 0.00 | 0.00 | 0.00 | 86 | 1008.6 |
| 20260505061029 | 71 | 31 | 4.0 | 7.0 | 0.00 | 0.00 | 0.00 | 86 | 1008.6 |
| 20260505060927 | 71 | 52 | 4.0 | 7.0 | 0.00 | 0.00 | 0.00 | 86 | 1008.5 |
| 20260505060825 | 71 | 28 | 3.0 | 7.0 | 0.00 | 0.00 | 0.00 | 86 | 1008.6 |
| 20260505060725 | 71 | 45 | 3.0 | 7.0 | 0.00 | 0.00 | 0.00 | 86 | 1008.6 |
| 20260505060620 | 71 | 32 | 3.0 | 7.0 | 0.00 | 0.00 | 0.00 | 86 | 1008.5 |
| 20260505060521 | 71 | 41 | 2.0 | 7.0 | 0.00 | 0.00 | 0.00 | 86 | 1008.5 |
| 20260505060419 | 71 | 18 | 3.0 | 7.0 | 0.00 | 0.00 | 0.00 | 86 | 1008.5 |
| 20260505060319 | 71 | 61 | 4.0 | 7.0 | 0.00 | 0.00 | 0.00 | 86 | 1008.5 |
| 20260505060217 | 71 | 35 | 3.0 | 7.0 | 0.00 | 0.00 | 0.00 | 86 | 1008.5 |
| 20260505060115 | 71 | 41 | 3.0 | 7.0 | 0.00 | 0.00 | 0.00 | 86 | 1008.5 |
| 20260505060015 | 71 | 37 | 3.0 | 7.0 | 0.00 | 0.00 | 0.00 | 86 | 1008.6 |
| 20260505055913 | 71 | 35 | 3.0 | 7.0 | 0.00 | 0.00 | 0.00 | 86 | 1008.6 |
| 20260505055812 | 71 | 42 | 4.0 | 7.0 | 0.00 | 0.00 | 0.00 | 86 | 1008.5 |
| 20260505055710 | 71 | 45 | 4.0 | 7.0 | 0.00 | 0.00 | 0.00 | 86 | 1008.6 |
| 20260505055609 | 71 | 37 | 4.0 | 7.0 | 0.00 | 0.00 | 0.00 | 86 | 1008.5 |
| 20260505055507 | 71 | 47 | 3.0 | 7.0 | 0.00 | 0.00 | 0.00 | 86 | 1008.6 |
| 20260505055407 | 71 | 39 | 3.0 | 7.0 | 0.00 | 0.00 | 0.00 | 86 | 1008.6 |
| 20260505055307 | 71 | 34 | 4.0 | 7.0 | 0.00 | 0.00 | 0.00 | 86 | 1008.5 |
| 20260505055207 | 71 | 37 | 4.0 | 7.0 | 0.00 | 0.00 | 0.00 | 86 | 1008.5 |
| 20260505055104 | 71 | 41 | 3.0 | 7.0 | 0.00 | 0.00 | 0.00 | 86 | 1008.6 |
| 20260505055003 | 71 | 38 | 4.0 | 7.0 | 0.00 | 0.00 | 0.00 | 86 | 1008.5 |
| 20260505054902 | 71 | 49 | 4.0 | 7.0 | 0.00 | 0.00 | 0.00 | 86 | 1008.6 |
| 20260505054801 | 71 | 39 | 3.0 | 6.0 | 0.00 | 0.00 | 0.00 | 86 | 1008.6 |
| 20260505054703 | 71 | 38 | 3.0 | 6.0 | 0.00 | 0.00 | 0.00 | 86 | 1008.6 |
| 20260505054602 | 71 | 37 | 4.0 | 6.0 | 0.00 | 0.00 | 0.00 | 86 | 1008.6 |
| 20260505054504 | 71 | 38 | 3.0 | 6.0 | 0.00 | 0.00 | 0.00 | 85 | 1008.6 |
| 20260505054402 | 71 | 27 | 3.0 | 6.0 | 0.00 | 0.00 | 0.00 | 85 | 1008.6 |
| 20260505054303 | 71 | 25 | 3.0 | 6.0 | 0.00 | 0.00 | 0.00 | 85 | 1008.7 |
| 20260505054202 | 71 | 31 | 3.0 | 6.0 | 0.00 | 0.00 | 0.00 | 85 | 1008.7 |
| 20260505054104 | 71 | 42 | 3.0 | 6.0 | 0.00 | 0.00 | 0.00 | 85 | 1008.7 |
| 20260505054003 | 71 | 44 | 3.0 | 6.0 | 0.00 | 0.00 | 0.00 | 85 | 1008.7 |
| 20260505053902 | 71 | 37 | 3.0 | 6.0 | 0.00 | 0.00 | 0.00 | 85 | 1008.7 |
| 20260505053802 | 71 | 35 | 3.0 | 6.0 | 0.00 | 0.00 | 0.00 | 85 | 1008.7 |
| 20260505053703 | 71 | 32 | 3.0 | 6.0 | 0.00 | 0.00 | 0.00 | 85 | 1008.7 |
| 20260505053603 | 71 | 30 | 3.0 | 6.0 | 0.00 | 0.00 | 0.00 | 85 | 1008.7 |
| 20260505053502 | 71 | 44 | 2.0 | 6.0 | 0.00 | 0.00 | 0.00 | 85 | 1008.7 |
| 20260505053402 | 71 | 49 | 2.0 | 6.0 | 0.00 | 0.00 | 0.00 | 85 | 1008.8 |
| 20260505053303 | 71 | 41 | 2.0 | 6.0 | 0.00 | 0.00 | 0.00 | 85 | 1008.8 |
| 20260505053202 | 71 | 48 | 2.0 | 7.0 | 0.00 | 0.00 | 0.00 | 85 | 1008.8 |
| 20260505053103 | 71 | 38 | 2.0 | 7.0 | 0.00 | 0.00 | 0.00 | 85 | 1008.9 |
| 20260505053002 | 71 | 27 | 3.0 | 7.0 | 0.00 | 0.00 | 0.00 | 85 | 1008.9 |
| 20260505052903 | 71 | 42 | 4.0 | 7.0 | 0.00 | 0.00 | 0.00 | 85 | 1009.0 |
| 20260505052803 | 71 | 48 | 4.0 | 7.0 | 0.00 | 0.00 | 0.00 | 85 | 1008.9 |
| 20260505052702 | 71 | 42 | 3.0 | 7.0 | 0.00 | 0.00 | 0.00 | 85 | 1008.9 |
| 20260505052602 | 71 | 42 | 3.0 | 7.0 | 0.00 | 0.00 | 0.00 | 85 | 1008.9 |
| 20260505052502 | 71 | 52 | 3.0 | 7.0 | 0.00 | 0.00 | 0.00 | 85 | 1008.9 |
| 20260505052402 | 71 | 48 | 3.0 | 7.0 | 0.00 | 0.00 | 0.00 | 85 | 1008.9 |
| 20260505052304 | 71 | 45 | 3.0 | 7.0 | 0.00 | 0.00 | 0.00 | 85 | 1008.9 |
| 20260505052202 | 71 | 47 | 2.0 | 9.0 | 0.00 | 0.00 | 0.00 | 85 | 1008.9 |
| 20260505052104 | 71 | 39 | 2.0 | 9.0 | 0.00 | 0.00 | 0.00 | 84 | 1008.9 |
| 20260505052002 | 72 | 42 | 3.0 | 9.0 | 0.00 | 0.00 | 0.00 | 84 | 1008.9 |
| 20260505051901 | 72 | 39 | 3.0 | 11.0 | 0.00 | 0.00 | 0.00 | 84 | 1009.0 |
| 20260505051802 | 72 | 45 | 3.0 | 11.0 | 0.00 | 0.00 | 0.00 | 84 | 1008.9 |
| 20260505051702 | 72 | 44 | 4.0 | 11.0 | 0.00 | 0.00 | 0.00 | 84 | 1009.0 |
| 20260505051604 | 72 | 45 | 4.0 | 11.0 | 0.00 | 0.00 | 0.00 | 84 | 1008.9 |
| 20260505051504 | 72 | 44 | 4.0 | 11.0 | 0.00 | 0.00 | 0.00 | 84 | 1009.0 |
| 20260505051402 | 72 | 41 | 5.0 | 11.0 | 0.00 | 0.00 | 0.00 | 84 | 1009.0 |
| 20260505051302 | 72 | 42 | 4.0 | 11.0 | 0.00 | 0.00 | 0.00 | 84 | 1009.0 |
| 20260505051203 | 72 | 47 | 3.0 | 11.0 | 0.00 | 0.00 | 0.00 | 84 | 1009.0 |
| 20260505051102 | 72 | 35 | 4.0 | 11.0 | 0.00 | 0.00 | 0.00 | 84 | 1009.0 |
| 20260505051002 | 72 | 49 | 4.0 | 11.0 | 0.00 | 0.00 | 0.00 | 84 | 1008.9 |
| 20260505050903 | 72 | 41 | 4.0 | 7.0 | 0.00 | 0.00 | 0.00 | 84 | 1008.9 |
| 20260505050803 | 72 | 35 | 4.0 | 7.0 | 0.00 | 0.00 | 0.00 | 84 | 1008.8 |
| 20260505050702 | 72 | 38 | 3.0 | 7.0 | 0.00 | 0.00 | 0.00 | 84 | 1008.9 |
| 20260505050603 | 72 | 39 | 3.0 | 10.0 | 0.00 | 0.00 | 0.00 | 84 | 1008.9 |
| 20260505050503 | 72 | 51 | 3.0 | 10.0 | 0.00 | 0.00 | 0.00 | 84 | 1008.9 |
| 20260505050402 | 72 | 49 | 3.0 | 10.0 | 0.00 | 0.00 | 0.00 | 84 | 1008.9 |
| 20260505050303 | 72 | 48 | 3.0 | 12.0 | 0.00 | 0.00 | 0.00 | 84 | 1008.9 |
| 20260505050203 | 72 | 37 | 4.0 | 12.0 | 0.00 | 0.00 | 0.00 | 83 | 1008.9 |
| 20260505041750 | 72 | 49 | 6.0 | 12.0 | 0.00 | 0.00 | 0.00 | 82 | 1008.8 |
| 20260505041651 | 72 | 80 | 6.0 | 12.0 | 0.00 | 0.00 | 0.00 | 82 | 1008.8 |
| 20260505041551 | 72 | 61 | 4.0 | 12.0 | 0.00 | 0.00 | 0.00 | 82 | 1008.8 |
| 20260505041450 | 73 | 51 | 5.0 | 12.0 | 0.00 | 0.00 | 0.00 | 81 | 1008.7 |
| 20260505041351 | 73 | 59 | 5.0 | 12.0 | 0.00 | 0.00 | 0.00 | 81 | 1008.8 |
| 20260505041252 | 73 | 51 | 5.0 | 12.0 | 0.00 | 0.00 | 0.00 | 81 | 1008.8 |
| 20260505041152 | 73 | 44 | 6.0 | 12.0 | 0.00 | 0.00 | 0.00 | 81 | 1008.8 |
| 20260505041051 | 73 | 56 | 6.0 | 12.0 | 0.00 | 0.00 | 0.00 | 81 | 1008.9 |
| 20260505040950 | 73 | 18 | 5.0 | 13.0 | 0.00 | 0.00 | 0.00 | 81 | 1009.0 |
| 20260505040850 | 73 | 51 | 6.0 | 13.0 | 0.00 | 0.00 | 0.00 | 81 | 1009.1 |
| 20260505040749 | 73 | 66 | 6.0 | 13.0 | 0.00 | 0.00 | 0.00 | 81 | 1009.1 |
| 20260505040647 | 73 | 63 | 6.0 | 13.0 | 0.00 | 0.00 | 0.00 | 81 | 1009.2 |
| 20260505040547 | 73 | 42 | 5.0 | 13.0 | 0.00 | 0.00 | 0.00 | 81 | 1009.2 |
| 20260505040445 | 73 | 39 | 4.0 | 13.0 | 0.00 | 0.00 | 0.00 | 81 | 1009.1 |
| 20260505040343 | 73 | 66 | 6.0 | 13.0 | 0.00 | 0.00 | 0.00 | 81 | 1009.2 |
| 20260505040241 | 73 | 42 | 6.0 | 13.0 | 0.00 | 0.00 | 0.00 | 80 | 1009.2 |
| 20260505040140 | 73 | 63 | 6.0 | 13.0 | 0.00 | 0.00 | 0.00 | 80 | 1009.3 |
| 20260505040040 | 73 | 65 | 5.0 | 19.0 | 0.00 | 0.00 | 0.00 | 80 | 1009.3 |
| 20260505035938 | 73 | 63 | 5.0 | 19.0 | 0.00 | 0.00 | 0.00 | 80 | 1009.3 |
| 20260505035835 | 73 | 32 | 7.0 | 19.0 | 0.00 | 0.00 | 0.00 | 80 | 1009.3 |
| 20260505035734 | 73 | 0 | 8.0 | 19.0 | 0.00 | 0.00 | 0.00 | 80 | 1009.2 |
| 20260505035631 | 73 | 56 | 6.0 | 19.0 | 0.00 | 0.00 | 0.00 | 80 | 1009.2 |
| 20260505035532 | 73 | 63 | 6.0 | 19.0 | 0.00 | 0.00 | 0.00 | 80 | 1009.1 |
| 20260505035431 | 73 | 56 | 6.0 | 19.0 | 0.00 | 0.00 | 0.00 | 80 | 1009.3 |
| 20260505035333 | 73 | 55 | 7.0 | 19.0 | 0.00 | 0.00 | 0.00 | 80 | 1009.2 |
| 20260505035232 | 74 | 55 | 9.0 | 19.0 | 0.00 | 0.00 | 0.00 | 80 | 1009.2 |
| 20260505035132 | 74 | 72 | 9.0 | 19.0 | 0.00 | 0.00 | 0.00 | 80 | 1009.2 |
| 20260505035031 | 74 | 63 | 7.0 | 16.0 | 0.00 | 0.00 | 0.00 | 80 | 1009.2 |
| 20260505034934 | 74 | 0 | 6.0 | 16.0 | 0.00 | 0.00 | 0.00 | 80 | 1009.1 |
| 20260505034831 | 74 | 85 | 6.0 | 15.0 | 0.00 | 0.00 | 0.00 | 80 | 1009.1 |
| 20260505034731 | 74 | 0 | 7.0 | 15.0 | 0.00 | 0.00 | 0.00 | 80 | 1009.1 |
| 20260505034632 | 74 | 69 | 7.0 | 13.0 | 0.00 | 0.00 | 0.00 | 80 | 1009.2 |
| 20260505034530 | 74 | 92 | 6.0 | 12.0 | 0.00 | 0.00 | 0.00 | 80 | 1009.3 |
| 20260505034430 | 74 | 61 | 5.0 | 12.0 | 0.00 | 0.00 | 0.00 | 80 | 1009.4 |
| 20260505034327 | 74 | 71 | 5.0 | 12.0 | 0.00 | 0.00 | 0.00 | 80 | 1009.4 |
| 20260505034227 | 74 | 62 | 7.0 | 15.0 | 0.00 | 0.00 | 0.00 | 80 | 1009.4 |
| 20260505034125 | 74 | 35 | 6.0 | 15.0 | 0.00 | 0.00 | 0.00 | 80 | 1009.4 |
| 20260505034025 | 74 | 59 | 4.0 | 15.0 | 0.00 | 0.00 | 0.00 | 79 | 1009.4 |
| 20260505033921 | 74 | 83 | 5.0 | 15.0 | 0.00 | 0.00 | 0.00 | 79 | 1009.5 |
| 20260505033820 | 74 | 41 | 7.0 | 15.0 | 0.00 | 0.00 | 0.00 | 79 | 1009.4 |
| 20260505033719 | 74 | 25 | 7.0 | 15.0 | 0.00 | 0.00 | 0.00 | 79 | 1009.4 |
| 20260505033617 | 74 | 66 | 8.0 | 15.0 | 0.00 | 0.00 | 0.00 | 79 | 1009.5 |
| 20260505033516 | 74 | 63 | 8.0 | 15.0 | 0.00 | 0.00 | 0.00 | 79 | 1009.4 |
| 20260505033413 | 74 | 76 | 8.0 | 15.0 | 0.00 | 0.00 | 0.00 | 79 | 1009.4 |
| 20260505033313 | 74 | 83 | 8.0 | 15.0 | 0.00 | 0.00 | 0.00 | 79 | 1009.5 |
| 20260505033212 | 74 | 61 | 6.0 | 14.0 | 0.00 | 0.00 | 0.00 | 79 | 1009.4 |
| 20260505033109 | 74 | 72 | 7.0 | 18.0 | 0.00 | 0.00 | 0.00 | 79 | 1009.3 |
| 20260505033009 | 74 | 68 | 8.0 | 18.0 | 0.00 | 0.00 | 0.00 | 79 | 1009.3 |
| 20260505032907 | 74 | 78 | 7.0 | 18.0 | 0.00 | 0.00 | 0.00 | 79 | 1009.3 |
| 20260505032805 | 74 | 71 | 5.0 | 18.0 | 0.00 | 0.00 | 0.00 | 79 | 1009.3 |
| 20260505032704 | 74 | 0 | 6.0 | 18.0 | 0.00 | 0.00 | 0.00 | 79 | 1009.4 |
| 20260505032603 | 74 | 0 | 6.0 | 18.0 | 0.00 | 0.00 | 0.00 | 79 | 1009.4 |
| 20260505032502 | 74 | 71 | 5.0 | 18.0 | 0.00 | 0.00 | 0.00 | 79 | 1009.3 |
| 20260505032402 | 74 | 56 | 6.0 | 18.0 | 0.00 | 0.00 | 0.00 | 79 | 1009.4 |
| 20260505032304 | 74 | 63 | 9.0 | 18.0 | 0.00 | 0.00 | 0.00 | 79 | 1009.3 |
| 20260505032202 | 74 | 86 | 9.0 | 18.0 | 0.00 | 0.00 | 0.00 | 79 | 1009.3 |
| 20260505032101 | 74 | 0 | 7.0 | 15.0 | 0.00 | 0.00 | 0.00 | 79 | 1009.3 |
| 20260505032002 | 74 | 0 | 6.0 | 15.0 | 0.00 | 0.00 | 0.00 | 79 | 1009.4 |
| 20260505031904 | 74 | 73 | 5.0 | 15.0 | 0.00 | 0.00 | 0.00 | 79 | 1009.4 |
| 20260505031804 | 74 | 45 | 6.0 | 15.0 | 0.00 | 0.00 | 0.00 | 79 | 1009.3 |
| 20260505031702 | 74 | 80 | 7.0 | 15.0 | 0.00 | 0.00 | 0.00 | 79 | 1009.3 |
| 20260505031603 | 74 | 39 | 7.0 | 15.0 | 0.00 | 0.00 | 0.00 | 79 | 1009.2 |
| 20260505031502 | 74 | 80 | 7.0 | 15.0 | 0.00 | 0.00 | 0.00 | 79 | 1009.3 |
| 20260505031403 | 74 | 72 | 8.0 | 15.0 | 0.00 | 0.00 | 0.00 | 79 | 1009.3 |
| 20260505031303 | 74 | 65 | 7.0 | 15.0 | 0.00 | 0.00 | 0.00 | 79 | 1009.3 |
| 20260505031204 | 74 | 75 | 7.0 | 16.0 | 0.00 | 0.00 | 0.00 | 79 | 1009.2 |
| 20260505031102 | 74 | 79 | 9.0 | 17.0 | 0.00 | 0.00 | 0.00 | 79 | 1009.2 |
| 20260505031002 | 74 | 62 | 7.0 | 17.0 | 0.00 | 0.00 | 0.00 | 79 | 1009.3 |
| 20260505030903 | 74 | 71 | 6.0 | 17.0 | 0.00 | 0.00 | 0.00 | 79 | 1009.3 |
| 20260505030802 | 74 | 16 | 5.0 | 17.0 | 0.00 | 0.00 | 0.00 | 79 | 1009.2 |
| 20260505030702 | 74 | 69 | 6.0 | 17.0 | 0.00 | 0.00 | 0.00 | 79 | 1009.2 |
| 20260505030604 | 74 | 71 | 6.0 | 17.0 | 0.00 | 0.00 | 0.00 | 79 | 1009.2 |
| 20260505030502 | 74 | 68 | 6.0 | 17.0 | 0.00 | 0.00 | 0.00 | 79 | 1009.1 |
| 20260505030402 | 74 | 75 | 7.0 | 17.0 | 0.00 | 0.00 | 0.00 | 79 | 1009.2 |
| 20260505030304 | 74 | 58 | 9.0 | 17.0 | 0.00 | 0.00 | 0.00 | 79 | 1009.1 |
| 20260505030202 | 74 | 73 | 8.0 | 17.0 | 0.00 | 0.00 | 0.00 | 79 | 1009.1 |
| 20260505030004 | 74 | 68 | 7.0 | 15.0 | 0.00 | 0.00 | 0.00 | 79 | 1009.2 |
| 20260505025903 | 74 | 55 | 7.0 | 15.0 | 0.00 | 0.00 | 0.00 | 79 | 1009.1 |
| 20260505025803 | 74 | 72 | 7.0 | 15.0 | 0.00 | 0.00 | 0.00 | 79 | 1009.2 |
| 20260505025702 | 74 | 62 | 5.0 | 15.0 | 0.00 | 0.00 | 0.00 | 79 | 1009.1 |
| 20260505025604 | 74 | 52 | 6.0 | 15.0 | 0.00 | 0.00 | 0.00 | 79 | 1009.2 |
| 20260505025503 | 74 | 61 | 7.0 | 15.0 | 0.00 | 0.00 | 0.00 | 79 | 1009.2 |
| 20260505025402 | 74 | 78 | 7.0 | 15.0 | 0.00 | 0.00 | 0.00 | 79 | 1009.2 |
| 20260505025304 | 74 | 80 | 7.0 | 15.0 | 0.00 | 0.00 | 0.00 | 79 | 1009.2 |
| 20260505025203 | 74 | 87 | 9.0 | 15.0 | 0.00 | 0.00 | 0.00 | 79 | 1009.3 |
| 20260505025104 | 74 | 59 | 8.0 | 15.0 | 0.00 | 0.00 | 0.00 | 79 | 1009.2 |
| 20260505025004 | 74 | 63 | 5.0 | 15.0 | 0.00 | 0.00 | 0.00 | 79 | 1009.3 |
| 20260505024904 | 74 | 0 | 6.0 | 15.0 | 0.00 | 0.00 | 0.00 | 79 | 1009.4 |
| 20260505024802 | 74 | 69 | 6.0 | 15.0 | 0.00 | 0.00 | 0.00 | 79 | 1009.3 |
| 20260505024702 | 74 | 79 | 5.0 | 15.0 | 0.00 | 0.00 | 0.00 | 79 | 1009.3 |
| 20260505024602 | 74 | 44 | 5.0 | 15.0 | 0.00 | 0.00 | 0.00 | 79 | 1009.4 |
| 20260505024503 | 74 | 62 | 6.0 | 15.0 | 0.00 | 0.00 | 0.00 | 79 | 1009.3 |
| 20260505024403 | 74 | 59 | 8.0 | 15.0 | 0.00 | 0.00 | 0.00 | 79 | 1009.3 |
| 20260505024303 | 74 | 61 | 8.0 | 15.0 | 0.00 | 0.00 | 0.00 | 79 | 1009.3 |
| 20260505024202 | 74 | 72 | 6.0 | 15.0 | 0.00 | 0.00 | 0.00 | 79 | 1009.3 |
| 20260505024103 | 74 | 87 | 7.0 | 15.0 | 0.00 | 0.00 | 0.00 | 79 | 1009.3 |
| 20260505024003 | 74 | 76 | 8.0 | 15.0 | 0.00 | 0.00 | 0.00 | 79 | 1009.3 |
| 20260505023902 | 74 | 76 | 8.0 | 15.0 | 0.00 | 0.00 | 0.00 | 79 | 1009.3 |
| 20260505023803 | 74 | 72 | 9.0 | 15.0 | 0.00 | 0.00 | 0.00 | 78 | 1009.2 |
| 20260505023702 | 74 | 69 | 8.0 | 15.0 | 0.00 | 0.00 | 0.00 | 78 | 1009.3 |
| 20260505023602 | 74 | 73 | 5.0 | 15.0 | 0.00 | 0.00 | 0.00 | 78 | 1009.3 |
| 20260505023504 | 74 | 39 | 4.0 | 15.0 | 0.00 | 0.00 | 0.00 | 78 | 1009.3 |
| 20260505023402 | 74 | 66 | 4.0 | 15.0 | 0.00 | 0.00 | 0.00 | 78 | 1009.2 |
| 20260505023302 | 74 | 62 | 5.0 | 15.0 | 0.00 | 0.00 | 0.00 | 78 | 1009.2 |
| 20260505023203 | 74 | 79 | 7.0 | 15.0 | 0.00 | 0.00 | 0.00 | 78 | 1009.3 |
| 20260505023103 | 74 | 71 | 9.0 | 15.0 | 0.00 | 0.00 | 0.00 | 78 | 1009.2 |
| 20260505023004 | 74 | 148 | 10.0 | 15.0 | 0.00 | 0.00 | 0.00 | 78 | 1009.2 |
| 20260505022902 | 74 | 100 | 10.0 | 15.0 | 0.00 | 0.00 | 0.00 | 78 | 1009.2 |
| 20260505022803 | 74 | 97 | 8.0 | 20.0 | 0.00 | 0.00 | 0.00 | 78 | 1009.2 |
| 20260505022704 | 74 | 97 | 8.0 | 20.0 | 0.00 | 0.00 | 0.00 | 78 | 1009.2 |
| 20260505022603 | 74 | 97 | 8.0 | 20.0 | 0.00 | 0.00 | 0.00 | 78 | 1009.2 |
| 20260505022503 | 74 | 97 | 8.0 | 20.0 | 0.00 | 0.00 | 0.00 | 78 | 1009.2 |
| 20260505022403 | 74 | 97 | 8.0 | 20.0 | 0.00 | 0.00 | 0.00 | 78 | 1009.2 |
| 20260505022304 | 74 | 66 | 7.0 | 20.0 | 0.00 | 0.00 | 0.00 | 78 | 1009.1 |
| 20260505022204 | 74 | 89 | 6.0 | 20.0 | 0.00 | 0.00 | 0.00 | 78 | 1009.1 |
| 20260505022103 | 74 | 86 | 5.0 | 20.0 | 0.00 | 0.00 | 0.00 | 78 | 1009.1 |
| 20260505022002 | 74 | 61 | 9.0 | 20.0 | 0.00 | 0.00 | 0.00 | 77 | 1009.1 |
| 20260505021903 | 74 | 111 | 9.0 | 20.0 | 0.00 | 0.00 | 0.00 | 77 | 1009.1 |
| 20260505021803 | 74 | 114 | 9.0 | 18.0 | 0.00 | 0.00 | 0.00 | 77 | 1009.1 |
| 20260505021703 | 74 | 106 | 9.0 | 18.0 | 0.00 | 0.00 | 0.00 | 77 | 1009.1 |
| 20260505021603 | 74 | 49 | 8.0 | 18.0 | 0.00 | 0.00 | 0.00 | 77 | 1009.0 |
| 20260505021503 | 74 | 97 | 9.0 | 18.0 | 0.00 | 0.00 | 0.00 | 77 | 1009.0 |
| 20260505021403 | 74 | 75 | 9.0 | 18.0 | 0.00 | 0.00 | 0.00 | 77 | 1009.0 |
| 20260505021303 | 74 | 69 | 8.0 | 15.0 | 0.00 | 0.00 | 0.00 | 77 | 1009.0 |
| 20260505021201 | 74 | 114 | 9.0 | 15.0 | 0.00 | 0.00 | 0.00 | 77 | 1009.1 |
| 20260505021104 | 74 | 134 | 9.0 | 14.0 | 0.00 | 0.00 | 0.00 | 77 | 1009.1 |
| 20260505021003 | 74 | 118 | 9.0 | 16.0 | 0.00 | 0.00 | 0.00 | 77 | 1009.2 |
| 20260505020903 | 74 | 87 | 7.0 | 16.0 | 0.00 | 0.00 | 0.00 | 77 | 1009.2 |
| 20260505020803 | 74 | 110 | 6.0 | 16.0 | 0.00 | 0.00 | 0.00 | 77 | 1009.2 |
| 20260505020702 | 74 | 114 | 5.0 | 16.0 | 0.00 | 0.00 | 0.00 | 77 | 1009.2 |
| 20260505020602 | 74 | 97 | 6.0 | 16.0 | 0.00 | 0.00 | 0.00 | 77 | 1009.1 |
| 20260505020502 | 74 | 97 | 6.0 | 16.0 | 0.00 | 0.00 | 0.00 | 77 | 1009.1 |
| 20260505020404 | 74 | 96 | 7.0 | 19.0 | 0.00 | 0.00 | 0.00 | 77 | 1009.1 |
| 20260505020303 | 74 | 96 | 7.0 | 19.0 | 0.00 | 0.00 | 0.00 | 77 | 1009.1 |
| 20260505020204 | 74 | 96 | 7.0 | 19.0 | 0.00 | 0.00 | 0.00 | 77 | 1009.1 |
| 20260505020104 | 74 | 96 | 7.0 | 19.0 | 0.00 | 0.00 | 0.00 | 77 | 1009.0 |
| 20260505020004 | 74 | 47 | 5.0 | 19.0 | 0.00 | 0.00 | 0.00 | 77 | 1009.0 |
| 20260505015902 | 74 | 96 | 8.0 | 19.0 | 0.00 | 0.00 | 0.00 | 77 | 1009.0 |
| 20260505015804 | 74 | 93 | 10.0 | 19.0 | 0.00 | 0.00 | 0.00 | 77 | 1009.0 |
| 20260505015702 | 75 | 93 | 9.0 | 19.0 | 0.00 | 0.00 | 0.00 | 77 | 1009.0 |
| 20260505015602 | 75 | 90 | 9.0 | 19.0 | 0.00 | 0.00 | 0.00 | 77 | 1009.0 |
| 20260505015503 | 75 | 63 | 10.0 | 19.0 | 0.00 | 0.00 | 0.00 | 77 | 1009.0 |
| 20260505015404 | 75 | 83 | 9.0 | 16.0 | 0.00 | 0.00 | 0.00 | 76 | 1009.0 |
| 20260505015303 | 75 | 89 | 7.0 | 15.0 | 0.00 | 0.00 | 0.00 | 77 | 1009.0 |
| 20260505015203 | 75 | 99 | 6.0 | 18.0 | 0.00 | 0.00 | 0.00 | 77 | 1009.0 |
| 20260505015103 | 75 | 118 | 5.0 | 18.0 | 0.00 | 0.00 | 0.00 | 76 | 1009.0 |
| 20260505015004 | 75 | 86 | 5.0 | 18.0 | 0.00 | 0.00 | 0.00 | 76 | 1009.0 |
| 20260505014902 | 75 | 110 | 5.0 | 18.0 | 0.00 | 0.00 | 0.00 | 76 | 1008.9 |
| 20260505014802 | 75 | 104 | 6.0 | 18.0 | 0.00 | 0.00 | 0.00 | 76 | 1008.9 |
| 20260505014702 | 75 | 93 | 8.0 | 18.0 | 0.00 | 0.00 | 0.00 | 76 | 1008.9 |
| 20260505014602 | 75 | 100 | 8.0 | 19.0 | 0.00 | 0.00 | 0.00 | 76 | 1008.8 |
| 20260505014502 | 75 | 221 | 8.0 | 19.0 | 0.00 | 0.00 | 0.00 | 76 | 1008.9 |
| 20260505014403 | 75 | 165 | 10.0 | 19.0 | 0.00 | 0.00 | 0.00 | 76 | 1008.9 |
| 20260505014302 | 75 | 172 | 10.0 | 19.0 | 0.00 | 0.00 | 0.00 | 76 | 1008.9 |
| 20260505014202 | 75 | 182 | 7.0 | 19.0 | 0.00 | 0.00 | 0.00 | 76 | 1008.9 |
| 20260505014103 | 75 | 175 | 6.0 | 19.0 | 0.00 | 0.00 | 0.00 | 76 | 1008.7 |
| 20260505014004 | 75 | 164 | 7.0 | 19.0 | 0.00 | 0.00 | 0.00 | 76 | 1008.8 |
| 20260505013902 | 75 | 147 | 8.0 | 19.0 | 0.00 | 0.00 | 0.00 | 76 | 1008.8 |
| 20260505013802 | 75 | 166 | 9.0 | 19.0 | 0.00 | 0.00 | 0.00 | 76 | 1008.7 |
| 20260505013703 | 75 | 164 | 9.0 | 19.0 | 0.00 | 0.00 | 0.00 | 76 | 1008.7 |
| 20260505013601 | 75 | 164 | 7.0 | 15.0 | 0.00 | 0.00 | 0.00 | 76 | 1008.7 |
| 20260505013504 | 75 | 186 | 5.0 | 15.0 | 0.00 | 0.00 | 0.00 | 76 | 1008.7 |
| 20260505013403 | 75 | 128 | 5.0 | 15.0 | 0.00 | 0.00 | 0.00 | 76 | 1008.7 |
| 20260505013303 | 75 | 168 | 5.0 | 15.0 | 0.00 | 0.00 | 0.00 | 76 | 1008.7 |
| 20260505013203 | 75 | 154 | 6.0 | 15.0 | 0.00 | 0.00 | 0.00 | 76 | 1008.7 |
| 20260505013102 | 75 | 224 | 6.0 | 15.0 | 0.00 | 0.00 | 0.00 | 76 | 1008.6 |
| 20260505013002 | 75 | 138 | 6.0 | 15.0 | 0.00 | 0.00 | 0.00 | 76 | 1008.7 |
| 20260505012902 | 75 | 171 | 4.0 | 15.0 | 0.00 | 0.00 | 0.00 | 76 | 1008.6 |
| 20260505012802 | 75 | 148 | 6.0 | 15.0 | 0.00 | 0.00 | 0.00 | 76 | 1008.6 |
| 20260505012703 | 75 | 162 | 9.0 | 15.0 | 0.00 | 0.00 | 0.00 | 76 | 1008.4 |
| 20260505012603 | 75 | 171 | 6.0 | 14.0 | 0.00 | 0.00 | 0.00 | 76 | 1008.5 |
| 20260505012504 | 75 | 137 | 6.0 | 13.0 | 0.00 | 0.00 | 0.00 | 76 | 1008.5 |
| 20260505012402 | 75 | 111 | 5.0 | 13.0 | 0.00 | 0.00 | 0.00 | 76 | 1008.6 |
| 20260505012304 | 75 | 154 | 4.0 | 13.0 | 0.00 | 0.00 | 0.00 | 76 | 1008.6 |
| 20260505012202 | 75 | 121 | 5.0 | 13.0 | 0.00 | 0.00 | 0.00 | 76 | 1008.6 |
| 20260505012103 | 75 | 79 | 5.0 | 13.0 | 0.00 | 0.00 | 0.00 | 76 | 1008.6 |
| 20260505012004 | 75 | 96 | 5.0 | 13.0 | 0.00 | 0.00 | 0.00 | 76 | 1008.6 |
| 20260505011903 | 75 | 107 | 5.0 | 13.0 | 0.00 | 0.00 | 0.00 | 76 | 1008.6 |
| 20260505011802 | 75 | 85 | 5.0 | 13.0 | 0.00 | 0.00 | 0.00 | 76 | 1008.7 |
| 20260505011702 | 75 | 97 | 5.0 | 13.0 | 0.00 | 0.00 | 0.00 | 76 | 1008.7 |
| 20260505011603 | 75 | 75 | 6.0 | 13.0 | 0.00 | 0.00 | 0.00 | 76 | 1008.8 |
| 20260505011504 | 75 | 83 | 7.0 | 13.0 | 0.00 | 0.00 | 0.00 | 76 | 1008.8 |
| 20260505011403 | 75 | 93 | 6.0 | 13.0 | 0.00 | 0.00 | 0.00 | 76 | 1008.8 |
| 20260505011303 | 75 | 78 | 6.0 | 12.0 | 0.00 | 0.00 | 0.00 | 76 | 1008.7 |
| 20260505011202 | 75 | 41 | 6.0 | 12.0 | 0.00 | 0.00 | 0.00 | 76 | 1008.8 |
| 20260505011103 | 75 | 65 | 6.0 | 11.0 | 0.00 | 0.00 | 0.00 | 76 | 1008.7 |
| 20260505011003 | 75 | 76 | 5.0 | 14.0 | 0.00 | 0.00 | 0.00 | 76 | 1008.7 |
| 20260505010902 | 75 | 123 | 4.0 | 14.0 | 0.00 | 0.00 | 0.00 | 76 | 1008.7 |
| 20260505010801 | 75 | 49 | 5.0 | 14.0 | 0.00 | 0.00 | 0.00 | 76 | 1008.7 |
| 20260505010702 | 75 | 103 | 5.0 | 14.0 | 0.00 | 0.00 | 0.00 | 76 | 1008.7 |
| 20260505010603 | 75 | 113 | 5.0 | 14.0 | 0.00 | 0.00 | 0.00 | 76 | 1008.6 |
| 20260505010502 | 75 | 94 | 6.0 | 14.0 | 0.00 | 0.00 | 0.00 | 75 | 1008.7 |
| 20260505010402 | 75 | 90 | 7.0 | 17.0 | 0.00 | 0.00 | 0.00 | 75 | 1008.7 |
| 20260505010303 | 75 | 71 | 7.0 | 17.0 | 0.00 | 0.00 | 0.00 | 75 | 1008.7 |
| 20260505010202 | 75 | 155 | 6.0 | 17.0 | 0.00 | 0.00 | 0.00 | 75 | 1008.7 |
| 20260505010103 | 75 | 135 | 6.0 | 17.0 | 0.00 | 0.00 | 0.00 | 75 | 1008.7 |
| 20260505010004 | 75 | 83 | 7.0 | 17.0 | 0.00 | 0.00 | 0.00 | 75 | 1008.7 |
| 20260505005902 | 75 | 120 | 7.0 | 17.0 | 0.00 | 0.00 | 0.00 | 75 | 1008.8 |
| 20260505005802 | 75 | 97 | 6.0 | 17.0 | 0.00 | 0.00 | 0.00 | 75 | 1008.7 |
| 20260505005702 | 75 | 100 | 5.0 | 17.0 | 0.00 | 0.00 | 0.00 | 75 | 1008.6 |
| 20260505005603 | 75 | 35 | 7.0 | 17.0 | 0.00 | 0.00 | 0.00 | 75 | 1008.6 |
| 20260505005502 | 75 | 103 | 7.0 | 17.0 | 0.00 | 0.00 | 0.00 | 75 | 1008.6 |
| 20260505005403 | 75 | 103 | 6.0 | 15.0 | 0.00 | 0.00 | 0.00 | 75 | 1008.6 |
| 20260505005303 | 75 | 71 | 6.0 | 15.0 | 0.00 | 0.00 | 0.00 | 75 | 1008.5 |
| 20260505005203 | 75 | 154 | 6.0 | 15.0 | 0.00 | 0.00 | 0.00 | 75 | 1008.6 |
| 20260505005104 | 75 | 186 | 7.0 | 15.0 | 0.00 | 0.00 | 0.00 | 75 | 1008.5 |
| 20260505005004 | 75 | 212 | 7.0 | 15.0 | 0.00 | 0.00 | 0.00 | 75 | 1008.6 |
| 20260505004902 | 75 | 172 | 7.0 | 12.0 | 0.00 | 0.00 | 0.00 | 75 | 1008.5 |
| 20260505004804 | 75 | 157 | 6.0 | 12.0 | 0.00 | 0.00 | 0.00 | 75 | 1008.6 |
| 20260505004702 | 75 | 154 | 4.0 | 11.0 | 0.00 | 0.00 | 0.00 | 75 | 1008.5 |
| 20260505004604 | 75 | 151 | 5.0 | 11.0 | 0.00 | 0.00 | 0.00 | 75 | 1008.5 |
| 20260505004503 | 75 | 173 | 6.0 | 11.0 | 0.00 | 0.00 | 0.00 | 75 | 1008.5 |
| 20260505004401 | 76 | 158 | 4.0 | 11.0 | 0.00 | 0.00 | 0.00 | 75 | 1008.4 |
| 20260505004302 | 75 | 172 | 4.0 | 14.0 | 0.00 | 0.00 | 0.00 | 75 | 1008.4 |
| 20260505004202 | 76 | 209 | 4.0 | 14.0 | 0.00 | 0.00 | 0.00 | 75 | 1008.4 |
| 20260505004102 | 76 | 173 | 4.0 | 18.0 | 0.00 | 0.00 | 0.00 | 75 | 1008.4 |
| 20260505004002 | 76 | 166 | 5.0 | 18.0 | 0.00 | 0.00 | 0.00 | 74 | 1008.4 |
| 20260505003903 | 76 | 233 | 5.0 | 18.0 | 0.00 | 0.00 | 0.00 | 75 | 1008.4 |
| 20260505003802 | 76 | 24 | 4.0 | 18.0 | 0.00 | 0.00 | 0.00 | 74 | 1008.4 |
| 20260505003703 | 76 | 131 | 4.0 | 18.0 | 0.00 | 0.00 | 0.00 | 74 | 1008.4 |
| 20260505003603 | 76 | 251 | 4.0 | 18.0 | 0.00 | 0.00 | 0.00 | 74 | 1008.4 |
| 20260505003504 | 76 | 214 | 5.0 | 18.0 | 0.00 | 0.00 | 0.00 | 74 | 1008.4 |
| 20260505003404 | 76 | 348 | 7.0 | 18.0 | 0.00 | 0.00 | 0.00 | 74 | 1008.4 |
| 20260505003302 | 76 | 151 | 8.0 | 18.0 | 0.00 | 0.00 | 0.00 | 74 | 1008.5 |
| 20260505003203 | 76 | 233 | 7.0 | 18.0 | 0.00 | 0.00 | 0.00 | 74 | 1008.5 |
| 20260505003102 | 76 | 152 | 5.0 | 16.0 | 0.00 | 0.00 | 0.00 | 74 | 1008.5 |
| 20260505003002 | 76 | 169 | 4.0 | 16.0 | 0.00 | 0.00 | 0.00 | 74 | 1008.4 |
| 20260505002903 | 76 | 75 | 7.0 | 16.0 | 0.00 | 0.00 | 0.00 | 73 | 1008.4 |
| 20260505002803 | 76 | 207 | 9.0 | 16.0 | 0.00 | 0.00 | 0.00 | 74 | 1008.5 |
| 20260505002701 | 76 | 200 | 8.0 | 16.0 | 0.00 | 0.00 | 0.00 | 74 | 1008.4 |
| 20260505002601 | 76 | 141 | 8.0 | 13.0 | 0.00 | 0.00 | 0.00 | 73 | 1008.5 |
| 20260505002504 | 76 | 106 | 7.0 | 13.0 | 0.00 | 0.00 | 0.00 | 73 | 1008.4 |
| 20260505002402 | 76 | 141 | 5.0 | 13.0 | 0.00 | 0.00 | 0.00 | 73 | 1008.4 |
| 20260505002303 | 76 | 188 | 4.0 | 14.0 | 0.00 | 0.00 | 0.00 | 73 | 1008.5 |
| 20260505002203 | 76 | 89 | 6.0 | 14.0 | 0.00 | 0.00 | 0.00 | 73 | 1008.5 |
| 20260505002102 | 76 | 180 | 7.0 | 14.0 | 0.00 | 0.00 | 0.00 | 73 | 1008.5 |
| 20260505002003 | 76 | 118 | 6.0 | 14.0 | 0.00 | 0.00 | 0.00 | 73 | 1008.6 |
| 20260505001904 | 76 | 151 | 6.0 | 14.0 | 0.00 | 0.00 | 0.00 | 73 | 1008.5 |
| 20260505001802 | 76 | 175 | 6.0 | 14.0 | 0.00 | 0.00 | 0.00 | 73 | 1008.6 |
| 20260505001703 | 76 | 186 | 8.0 | 14.0 | 0.00 | 0.00 | 0.00 | 73 | 1008.6 |
| 20260505001602 | 76 | 165 | 7.0 | 14.0 | 0.00 | 0.00 | 0.00 | 73 | 1008.5 |
| 20260505001505 | 76 | 128 | 8.0 | 14.0 | 0.00 | 0.00 | 0.00 | 73 | 1008.6 |
| 20260505001403 | 77 | 157 | 8.0 | 14.0 | 0.00 | 0.00 | 0.00 | 73 | 1008.5 |
| 20260505001301 | 77 | 203 | 7.0 | 14.0 | 0.00 | 0.00 | 0.00 | 73 | 1008.6 |
| 20260505001202 | 77 | 149 | 6.0 | 12.0 | 0.00 | 0.00 | 0.00 | 73 | 1008.5 |
| 20260505001102 | 77 | 161 | 6.0 | 12.0 | 0.00 | 0.00 | 0.00 | 73 | 1008.5 |
| 20260505001002 | 77 | 188 | 7.0 | 14.0 | 0.00 | 0.00 | 0.00 | 73 | 1008.6 |
| 20260505000901 | 77 | 207 | 6.0 | 15.0 | 0.00 | 0.00 | 0.00 | 73 | 1008.7 |
| 20260505000759 | 77 | 154 | 5.0 | 15.0 | 0.00 | 0.00 | 0.00 | 73 | 1008.6 |
| 20260505000657 | 77 | 149 | 4.0 | 15.0 | 0.00 | 0.00 | 0.00 | 73 | 1008.7 |
| 20260505000557 | 77 | 164 | 4.0 | 17.0 | 0.00 | 0.00 | 0.00 | 73 | 1008.7 |
| 20260505000456 | 77 | 206 | 7.0 | 17.0 | 0.00 | 0.00 | 0.00 | 73 | 1008.6 |
| 20260505000353 | 77 | 168 | 7.0 | 17.0 | 0.00 | 0.00 | 0.00 | 72 | 1008.6 |
| 20260505000250 | 77 | 147 | 6.0 | 17.0 | 0.00 | 0.00 | 0.00 | 72 | 1008.6 |
| 20260505000145 | 77 | 152 | 8.0 | 17.0 | 0.00 | 0.00 | 0.00 | 72 | 1008.6 |
| 20260505000045 | 77 | 75 | 8.0 | 17.0 | 0.00 | 0.00 | 0.00 | 72 | 1008.6 |
| 20260504235946 | 77 | 166 | 7.0 | 17.0 | 0.00 | 0.00 | 0.00 | 72 | 1008.6 |
| 20260504235845 | 77 | 169 | 7.0 | 17.0 | 0.00 | 0.00 | 0.00 | 72 | 1008.6 |
| 20260504235744 | 77 | 80 | 7.0 | 17.0 | 0.00 | 0.00 | 0.00 | 72 | 1008.5 |
| 20260504235645 | 77 | 213 | 6.0 | 17.0 | 0.00 | 0.00 | 0.00 | 72 | 1008.6 |
| 20260504235545 | 77 | 133 | 6.0 | 16.0 | 0.00 | 0.00 | 0.00 | 72 | 1008.5 |
| 20260504235446 | 77 | 141 | 6.0 | 16.0 | 0.00 | 0.00 | 0.00 | 72 | 1008.5 |
| 20260504235344 | 77 | 120 | 5.0 | 16.0 | 0.00 | 0.00 | 0.00 | 72 | 1008.6 |
| 20260504235245 | 77 | 147 | 6.0 | 16.0 | 0.00 | 0.00 | 0.00 | 72 | 1008.5 |
| 20260504235144 | 77 | 125 | 7.0 | 16.0 | 0.00 | 0.00 | 0.00 | 72 | 1008.6 |
| 20260504235044 | 77 | 178 | 6.0 | 16.0 | 0.00 | 0.00 | 0.00 | 72 | 1008.6 |
| 20260504234944 | 77 | 96 | 5.0 | 16.0 | 0.00 | 0.00 | 0.00 | 72 | 1008.6 |
| 20260504234844 | 77 | 147 | 7.0 | 16.0 | 0.00 | 0.00 | 0.00 | 72 | 1008.6 |
| 20260504234746 | 77 | 179 | 8.0 | 16.0 | 0.00 | 0.00 | 0.00 | 72 | 1008.7 |
| 20260504234646 | 77 | 159 | 6.0 | 13.0 | 0.00 | 0.00 | 0.00 | 72 | 1008.6 |
| 20260504234545 | 77 | 165 | 6.0 | 13.0 | 0.00 | 0.00 | 0.00 | 72 | 1008.6 |
| 20260504234445 | 77 | 157 | 5.0 | 13.0 | 0.00 | 0.00 | 0.00 | 72 | 1008.8 |
| 20260504234345 | 77 | 127 | 4.0 | 13.0 | 0.00 | 0.00 | 0.00 | 72 | 1008.7 |
| 20260504234247 | 77 | 176 | 5.0 | 13.0 | 0.00 | 0.00 | 0.00 | 72 | 1008.7 |
| 20260504234145 | 77 | 196 | 5.0 | 13.0 | 0.00 | 0.00 | 0.00 | 72 | 1008.7 |
| 20260504234044 | 77 | 120 | 6.0 | 13.0 | 0.00 | 0.00 | 0.00 | 72 | 1008.7 |
| 20260504233944 | 77 | 171 | 6.0 | 13.0 | 0.00 | 0.00 | 0.00 | 72 | 1008.7 |
| 20260504233845 | 77 | 141 | 5.0 | 15.0 | 0.00 | 0.00 | 0.00 | 72 | 1008.7 |
| 20260504233744 | 77 | 55 | 5.0 | 15.0 | 0.00 | 0.00 | 0.00 | 72 | 1008.7 |
| 20260504233644 | 77 | 123 | 5.0 | 15.0 | 0.00 | 0.00 | 0.00 | 72 | 1008.7 |
| 20260504233545 | 77 | 85 | 5.0 | 15.0 | 0.00 | 0.00 | 0.00 | 72 | 1008.8 |
| 20260504233445 | 77 | 173 | 6.0 | 15.0 | 0.00 | 0.00 | 0.00 | 72 | 1008.8 |
| 20260504233344 | 77 | 172 | 6.0 | 15.0 | 0.00 | 0.00 | 0.00 | 72 | 1008.8 |
| 20260504233244 | 77 | 186 | 5.0 | 15.0 | 0.00 | 0.00 | 0.00 | 72 | 1008.8 |
| 20260504233146 | 77 | 121 | 6.0 | 17.0 | 0.00 | 0.00 | 0.00 | 72 | 1008.8 |
| 20260504233045 | 77 | 100 | 8.0 | 17.0 | 0.00 | 0.00 | 0.00 | 72 | 1008.8 |
| 20260504232944 | 77 | 123 | 6.0 | 17.0 | 0.00 | 0.00 | 0.00 | 72 | 1008.8 |
| 20260504232847 | 77 | 56 | 5.0 | 17.0 | 0.00 | 0.00 | 0.00 | 71 | 1008.8 |
| 20260504232744 | 77 | 89 | 8.0 | 17.0 | 0.00 | 0.00 | 0.00 | 71 | 1008.8 |
| 20260504232646 | 77 | 164 | 9.0 | 17.0 | 0.00 | 0.00 | 0.00 | 71 | 1008.8 |
| 20260504232545 | 77 | 144 | 8.0 | 17.0 | 0.00 | 0.00 | 0.00 | 71 | 1008.7 |
| 20260504232445 | 77 | 162 | 6.0 | 17.0 | 0.00 | 0.00 | 0.00 | 71 | 1008.7 |
| 20260504232344 | 77 | 130 | 8.0 | 17.0 | 0.00 | 0.00 | 0.00 | 71 | 1008.8 |
| 20260504232244 | 78 | 130 | 9.0 | 17.0 | 0.00 | 0.00 | 0.00 | 71 | 1008.9 |
| 20260504232144 | 78 | 71 | 8.0 | 15.0 | 0.00 | 0.00 | 0.00 | 71 | 1008.8 |
| 20260504232043 | 78 | 158 | 7.0 | 15.0 | 0.00 | 0.00 | 0.00 | 71 | 1008.9 |
| 20260504231942 | 78 | 85 | 6.0 | 14.0 | 0.00 | 0.00 | 0.00 | 71 | 1008.9 |
| 20260504231840 | 78 | 127 | 6.0 | 14.0 | 0.00 | 0.00 | 0.00 | 71 | 1008.9 |
| 20260504231740 | 78 | 97 | 4.0 | 14.0 | 0.00 | 0.00 | 0.00 | 71 | 1008.9 |
| 20260504231637 | 78 | 288 | 4.0 | 14.0 | 0.00 | 0.00 | 0.00 | 71 | 1008.9 |
| 20260504231535 | 78 | 116 | 5.0 | 14.0 | 0.00 | 0.00 | 0.00 | 70 | 1008.8 |
| 20260504231435 | 78 | 186 | 6.0 | 14.0 | 0.00 | 0.00 | 0.00 | 70 | 1008.8 |
| 20260504231333 | 78 | 125 | 8.0 | 14.0 | 0.00 | 0.00 | 0.00 | 70 | 1008.8 |
| 20260504231232 | 78 | 252 | 7.0 | 14.0 | 0.00 | 0.00 | 0.00 | 70 | 1008.8 |
| 20260504231132 | 78 | 159 | 6.0 | 13.0 | 0.00 | 0.00 | 0.00 | 70 | 1008.9 |
| 20260504231031 | 78 | 159 | 7.0 | 13.0 | 0.00 | 0.00 | 0.00 | 70 | 1008.9 |
| 20260504230932 | 78 | 203 | 6.0 | 14.0 | 0.00 | 0.00 | 0.00 | 70 | 1009.0 |
| 20260504230831 | 78 | 152 | 6.0 | 14.0 | 0.00 | 0.00 | 0.00 | 70 | 1009.1 |
| 20260504230731 | 78 | 166 | 6.0 | 14.0 | 0.00 | 0.00 | 0.00 | 70 | 1009.1 |
| 20260504230634 | 78 | 127 | 6.0 | 14.0 | 0.00 | 0.00 | 0.00 | 70 | 1009.0 |
| 20260504230531 | 78 | 178 | 7.0 | 14.0 | 0.00 | 0.00 | 0.00 | 70 | 1009.0 |
| 20260504230430 | 78 | 149 | 6.0 | 14.0 | 0.00 | 0.00 | 0.00 | 70 | 1009.1 |
| 20260504230331 | 78 | 289 | 7.0 | 14.0 | 0.00 | 0.00 | 0.00 | 70 | 1009.0 |
| 20260504230232 | 78 | 186 | 6.0 | 14.0 | 0.00 | 0.00 | 0.00 | 70 | 1009.0 |
| 20260504230133 | 78 | 169 | 6.0 | 14.0 | 0.00 | 0.00 | 0.00 | 70 | 1008.9 |
| 20260504230031 | 78 | 159 | 7.0 | 14.0 | 0.00 | 0.00 | 0.00 | 70 | 1009.0 |
| 20260504225932 | 78 | 154 | 7.0 | 14.0 | 0.00 | 0.00 | 0.00 | 69 | 1009.0 |
| 20260504225832 | 78 | 190 | 7.0 | 13.0 | 0.00 | 0.00 | 0.00 | 69 | 1008.8 |
| 20260504225731 | 78 | 203 | 6.0 | 14.0 | 0.00 | 0.00 | 0.00 | 69 | 1008.9 |
| 20260504225632 | 78 | 185 | 7.0 | 14.0 | 0.00 | 0.00 | 0.00 | 69 | 1008.9 |
| 20260504225532 | 78 | 155 | 6.0 | 14.0 | 0.00 | 0.00 | 0.00 | 69 | 1008.9 |
| 20260504225431 | 79 | 155 | 6.0 | 16.0 | 0.00 | 0.00 | 0.00 | 69 | 1008.8 |
| 20260504225331 | 79 | 93 | 7.0 | 16.0 | 0.00 | 0.00 | 0.00 | 69 | 1008.9 |
| 20260504225231 | 79 | 158 | 7.0 | 16.0 | 0.00 | 0.00 | 0.00 | 69 | 1008.9 |
| 20260504225131 | 79 | 165 | 7.0 | 16.0 | 0.00 | 0.00 | 0.00 | 69 | 1008.9 |
| 20260504225031 | 79 | 159 | 7.0 | 16.0 | 0.00 | 0.00 | 0.00 | 69 | 1009.0 |
| 20260504224932 | 79 | 96 | 7.0 | 16.0 | 0.00 | 0.00 | 0.00 | 68 | 1009.1 |
| 20260504224831 | 79 | 164 | 7.0 | 16.0 | 0.00 | 0.00 | 0.00 | 68 | 1009.1 |
| 20260504224732 | 79 | 158 | 8.0 | 16.0 | 0.00 | 0.00 | 0.00 | 68 | 1009.1 |
| 20260504224631 | 79 | 152 | 8.0 | 16.0 | 0.00 | 0.00 | 0.00 | 68 | 1009.1 |
| 20260504224532 | 79 | 69 | 6.0 | 16.0 | 0.00 | 0.00 | 0.00 | 68 | 1009.1 |
| 20260504224431 | 79 | 159 | 4.0 | 12.0 | 0.00 | 0.00 | 0.00 | 68 | 1009.1 |
| 20260504224331 | 79 | 155 | 4.0 | 18.0 | 0.00 | 0.00 | 0.00 | 69 | 1009.2 |
| 20260504224233 | 79 | 159 | 5.0 | 18.0 | 0.00 | 0.00 | 0.00 | 68 | 1009.1 |
| 20260504224132 | 79 | 107 | 7.0 | 18.0 | 0.00 | 0.00 | 0.00 | 68 | 1009.1 |
| 20260504224031 | 79 | 224 | 7.0 | 18.0 | 0.00 | 0.00 | 0.00 | 68 | 1009.2 |
| 20260504223932 | 79 | 113 | 3.0 | 18.0 | 0.00 | 0.00 | 0.00 | 68 | 1009.1 |
| 20260504223831 | 79 | 113 | 3.0 | 18.0 | 0.00 | 0.00 | 0.00 | 68 | 1009.1 |
| 20260504223731 | 79 | 82 | 3.0 | 18.0 | 0.00 | 0.00 | 0.00 | 68 | 1009.1 |
| 20260504223631 | 79 | 140 | 5.0 | 18.0 | 0.00 | 0.00 | 0.00 | 68 | 1009.1 |
| 20260504223533 | 79 | 120 | 8.0 | 18.0 | 0.00 | 0.00 | 0.00 | 67 | 1009.1 |
| 20260504223431 | 80 | 175 | 8.0 | 18.0 | 0.00 | 0.00 | 0.00 | 67 | 1009.1 |
| 20260504223329 | 80 | 190 | 7.0 | 16.0 | 0.00 | 0.00 | 0.00 | 67 | 1009.2 |
| 20260504223227 | 80 | 154 | 6.0 | 16.0 | 0.00 | 0.00 | 0.00 | 67 | 1009.2 |
| 20260504223127 | 80 | 130 | 6.0 | 16.0 | 0.00 | 0.00 | 0.00 | 67 | 1009.2 |
| 20260504223025 | 80 | 100 | 6.0 | 16.0 | 0.00 | 0.00 | 0.00 | 68 | 1009.2 |
| 20260504222924 | 80 | 209 | 6.0 | 16.0 | 0.00 | 0.00 | 0.00 | 67 | 1009.2 |
| 20260504222821 | 80 | 231 | 6.0 | 16.0 | 0.00 | 0.00 | 0.00 | 67 | 1009.3 |
| 20260504222720 | 80 | 172 | 7.0 | 16.0 | 0.00 | 0.00 | 0.00 | 67 | 1009.3 |
| 20260504222618 | 80 | 282 | 9.0 | 16.0 | 0.00 | 0.00 | 0.00 | 66 | 1009.2 |
| 20260504222518 | 80 | 175 | 8.0 | 15.0 | 0.00 | 0.00 | 0.00 | 66 | 1009.3 |
| 20260504222416 | 80 | 118 | 6.0 | 14.0 | 0.00 | 0.00 | 0.00 | 66 | 1009.2 |
| 20260504222314 | 80 | 238 | 5.0 | 13.0 | 0.00 | 0.00 | 0.00 | 67 | 1009.2 |
| 20260504222212 | 80 | 128 | 6.0 | 13.0 | 0.00 | 0.00 | 0.00 | 67 | 1009.3 |
| 20260504222111 | 80 | 172 | 6.0 | 13.0 | 0.00 | 0.00 | 0.00 | 66 | 1009.3 |
| 20260504222010 | 80 | 75 | 6.0 | 17.0 | 0.00 | 0.00 | 0.00 | 65 | 1009.4 |
| 20260504221907 | 80 | 162 | 5.0 | 17.0 | 0.00 | 0.00 | 0.00 | 65 | 1009.3 |
| 20260504221808 | 80 | 133 | 5.0 | 17.0 | 0.00 | 0.00 | 0.00 | 66 | 1009.4 |
| 20260504221705 | 80 | 182 | 7.0 | 17.0 | 0.00 | 0.00 | 0.00 | 65 | 1009.3 |
| 20260504221604 | 80 | 161 | 9.0 | 17.0 | 0.00 | 0.00 | 0.00 | 65 | 1009.3 |
| 20260504221504 | 80 | 154 | 6.0 | 17.0 | 0.00 | 0.00 | 0.00 | 65 | 1009.4 |
| 20260504221403 | 80 | 189 | 4.0 | 17.0 | 0.00 | 0.00 | 0.00 | 65 | 1009.4 |
| 20260504221303 | 80 | 276 | 6.0 | 17.0 | 0.00 | 0.00 | 0.00 | 65 | 1009.4 |
| 20260504221203 | 80 | 176 | 9.0 | 17.0 | 0.00 | 0.00 | 0.00 | 64 | 1009.4 |
| 20260504221103 | 80 | 204 | 10.0 | 17.0 | 0.00 | 0.00 | 0.00 | 64 | 1009.5 |
| 20260504221003 | 80 | 172 | 8.0 | 15.0 | 0.00 | 0.00 | 0.00 | 64 | 1009.5 |
| 20260504220903 | 80 | 164 | 8.0 | 13.0 | 0.00 | 0.00 | 0.00 | 64 | 1009.4 |
| 20260504220803 | 80 | 148 | 6.0 | 13.0 | 0.00 | 0.00 | 0.00 | 63 | 1009.4 |
| 20260504220702 | 80 | 151 | 4.0 | 11.0 | 0.00 | 0.00 | 0.00 | 64 | 1009.4 |
| 20260504220602 | 81 | 213 | 4.0 | 13.0 | 0.00 | 0.00 | 0.00 | 64 | 1009.4 |
| 20260504220504 | 80 | 142 | 4.0 | 14.0 | 0.00 | 0.00 | 0.00 | 64 | 1009.4 |
| 20260504220402 | 81 | 144 | 6.0 | 14.0 | 0.00 | 0.00 | 0.00 | 64 | 1009.4 |
| 20260504220302 | 81 | 145 | 6.0 | 14.0 | 0.00 | 0.00 | 0.00 | 63 | 1009.5 |
| 20260504220202 | 81 | 274 | 7.0 | 14.0 | 0.00 | 0.00 | 0.00 | 62 | 1009.5 |
| 20260504220003 | 81 | 274 | 7.0 | 14.0 | 0.00 | 0.00 | 0.00 | 62 | 1009.4 |
| 20260504215904 | 81 | 274 | 7.0 | 14.0 | 0.00 | 0.00 | 0.00 | 62 | 1009.4 |
| 20260504215802 | 81 | 200 | 7.0 | 14.0 | 0.00 | 0.00 | 0.00 | 62 | 1009.4 |
| 20260504215702 | 81 | 212 | 8.0 | 14.0 | 0.00 | 0.00 | 0.00 | 61 | 1009.4 |
| 20260504215602 | 81 | 202 | 8.0 | 14.0 | 0.00 | 0.00 | 0.00 | 61 | 1009.4 |
| 20260504215504 | 81 | 233 | 6.0 | 13.0 | 0.00 | 0.00 | 0.00 | 62 | 1009.4 |
| 20260504215403 | 81 | 114 | 5.0 | 13.0 | 0.00 | 0.00 | 0.00 | 62 | 1009.4 |
| 20260504215304 | 81 | 159 | 5.0 | 13.0 | 0.00 | 0.00 | 0.00 | 62 | 1009.4 |
| 20260504215204 | 81 | 147 | 6.0 | 13.0 | 0.00 | 0.00 | 0.00 | 61 | 1009.5 |
| 20260504215104 | 81 | 123 | 6.0 | 13.0 | 0.00 | 0.00 | 0.00 | 61 | 1009.5 |
| 20260504215003 | 81 | 158 | 6.0 | 13.0 | 0.00 | 0.00 | 0.00 | 61 | 1009.4 |
| 20260504214903 | 82 | 210 | 7.0 | 18.0 | 0.00 | 0.00 | 0.00 | 61 | 1009.5 |
| 20260504214803 | 82 | 196 | 7.0 | 18.0 | 0.00 | 0.00 | 0.00 | 60 | 1009.5 |
| 20260504214702 | 82 | 240 | 6.0 | 18.0 | 0.00 | 0.00 | 0.00 | 61 | 1009.5 |
| 20260504214602 | 82 | 202 | 4.0 | 18.0 | 0.00 | 0.00 | 0.00 | 61 | 1009.5 |
| 20260504214504 | 82 | 111 | 6.0 | 18.0 | 0.00 | 0.00 | 0.00 | 61 | 1009.5 |
| 20260504214403 | 82 | 141 | 6.0 | 18.0 | 0.00 | 0.00 | 0.00 | 60 | 1009.5 |
| 20260504214303 | 82 | 189 | 5.0 | 18.0 | 0.00 | 0.00 | 0.00 | 61 | 1009.4 |
| 20260504214204 | 82 | 180 | 6.0 | 18.0 | 0.00 | 0.00 | 0.00 | 61 | 1009.5 |
| 20260504214102 | 81 | 157 | 7.0 | 18.0 | 0.00 | 0.00 | 0.00 | 61 | 1009.5 |
| 20260504214003 | 81 | 137 | 7.0 | 18.0 | 0.00 | 0.00 | 0.00 | 61 | 1009.6 |
| 20260504213902 | 81 | 130 | 6.0 | 13.0 | 0.00 | 0.00 | 0.00 | 61 | 1009.6 |
| 20260504213803 | 81 | 85 | 6.0 | 14.0 | 0.00 | 0.00 | 0.00 | 61 | 1009.5 |
| 20260504213702 | 81 | 121 | 6.0 | 15.0 | 0.00 | 0.00 | 0.00 | 61 | 1009.5 |
| 20260504213602 | 82 | 111 | 7.0 | 15.0 | 0.00 | 0.00 | 0.00 | 60 | 1009.6 |
| 20260504213503 | 82 | 71 | 6.0 | 15.0 | 0.00 | 0.00 | 0.00 | 60 | 1009.6 |
| 20260504213403 | 82 | 86 | 5.0 | 15.0 | 0.00 | 0.00 | 0.00 | 60 | 1009.6 |
| 20260504213304 | 82 | 120 | 4.0 | 15.0 | 0.00 | 0.00 | 0.00 | 60 | 1009.7 |
| 20260504213202 | 82 | 116 | 5.0 | 15.0 | 0.00 | 0.00 | 0.00 | 60 | 1009.7 |
| 20260504213102 | 82 | 99 | 7.0 | 16.0 | 0.00 | 0.00 | 0.00 | 60 | 1009.6 |
| 20260504213002 | 82 | 93 | 7.0 | 16.0 | 0.00 | 0.00 | 0.00 | 60 | 1009.7 |
| 20260504212903 | 82 | 180 | 7.0 | 16.0 | 0.00 | 0.00 | 0.00 | 60 | 1009.7 |
| 20260504212802 | 82 | 137 | 6.0 | 16.0 | 0.00 | 0.00 | 0.00 | 60 | 1009.6 |
| 20260504212702 | 82 | 100 | 5.0 | 16.0 | 0.00 | 0.00 | 0.00 | 61 | 1009.6 |
| 20260504212603 | 82 | 133 | 6.0 | 16.0 | 0.00 | 0.00 | 0.00 | 60 | 1009.7 |
| 20260504212502 | 82 | 159 | 5.0 | 16.0 | 0.00 | 0.00 | 0.00 | 60 | 1009.7 |
| 20260504212403 | 82 | 130 | 6.0 | 16.0 | 0.00 | 0.00 | 0.00 | 59 | 1009.7 |
| 20260504212304 | 82 | 202 | 9.0 | 16.0 | 0.00 | 0.00 | 0.00 | 59 | 1009.7 |
| 20260504212202 | 82 | 157 | 9.0 | 16.0 | 0.00 | 0.00 | 0.00 | 58 | 1009.7 |
| 20260504212105 | 82 | 190 | 7.0 | 14.0 | 0.00 | 0.00 | 0.00 | 59 | 1009.7 |
| 20260504212004 | 82 | 265 | 5.0 | 12.0 | 0.00 | 0.00 | 0.00 | 58 | 1009.7 |
| 20260504211902 | 82 | 94 | 5.0 | 12.0 | 0.00 | 0.00 | 0.00 | 59 | 1009.7 |
| 20260504211803 | 82 | 130 | 5.0 | 12.0 | 0.00 | 0.00 | 0.00 | 60 | 1009.7 |
| 20260504211702 | 82 | 217 | 6.0 | 12.0 | 0.00 | 0.00 | 0.00 | 59 | 1009.8 |
| 20260504211602 | 82 | 107 | 6.0 | 13.0 | 0.00 | 0.00 | 0.00 | 58 | 1009.8 |
| 20260504211503 | 82 | 99 | 6.0 | 16.0 | 0.00 | 0.00 | 0.00 | 58 | 1009.9 |
| 20260504211402 | 83 | 96 | 6.0 | 16.0 | 0.00 | 0.00 | 0.00 | 57 | 1009.9 |
| 20260504211301 | 83 | 140 | 5.0 | 16.0 | 0.00 | 0.00 | 0.00 | 58 | 1009.9 |
| 20260504211200 | 83 | 140 | 6.0 | 16.0 | 0.00 | 0.00 | 0.00 | 57 | 1010.0 |
| 20260504211059 | 83 | 147 | 7.0 | 17.0 | 0.00 | 0.00 | 0.00 | 57 | 1009.9 |
| 20260504210956 | 83 | 96 | 6.0 | 17.0 | 0.00 | 0.00 | 0.00 | 57 | 1010.0 |
| 20260504210854 | 83 | 97 | 6.0 | 17.0 | 0.00 | 0.00 | 0.00 | 59 | 1009.9 |
| 20260504210754 | 83 | 171 | 8.0 | 17.0 | 0.00 | 0.00 | 0.00 | 58 | 1010.0 |
| 20260504210653 | 83 | 200 | 10.0 | 17.0 | 0.00 | 0.00 | 0.00 | 58 | 1010.0 |
| 20260504210550 | 82 | 199 | 9.0 | 17.0 | 0.00 | 0.00 | 0.00 | 58 | 1009.9 |
| 20260504210449 | 82 | 206 | 5.0 | 17.0 | 0.00 | 0.00 | 0.00 | 60 | 1010.0 |
| 20260504210349 | 82 | 173 | 5.0 | 17.0 | 0.00 | 0.00 | 0.00 | 59 | 1010.0 |
| 20260504210247 | 82 | 148 | 7.0 | 17.0 | 0.00 | 0.00 | 0.00 | 58 | 1010.0 |
| 20260504210145 | 82 | 197 | 8.0 | 17.0 | 0.00 | 0.00 | 0.00 | 58 | 1009.9 |
| 20260504210046 | 82 | 165 | 7.0 | 13.0 | 0.00 | 0.00 | 0.00 | 59 | 1010.0 |
| 20260504205940 | 82 | 185 | 7.0 | 13.0 | 0.00 | 0.00 | 0.00 | 58 | 1010.0 |
| 20260504205840 | 82 | 190 | 7.0 | 13.0 | 0.00 | 0.00 | 0.00 | 58 | 1010.0 |
| 20260504205741 | 82 | 183 | 6.0 | 13.0 | 0.00 | 0.00 | 0.00 | 58 | 1010.2 |
| 20260504205641 | 82 | 117 | 5.0 | 14.0 | 0.00 | 0.00 | 0.00 | 59 | 1010.2 |
| 20260504205541 | 82 | 96 | 5.0 | 14.0 | 0.00 | 0.00 | 0.00 | 58 | 1010.1 |
| 20260504205440 | 82 | 161 | 6.0 | 14.0 | 0.00 | 0.00 | 0.00 | 58 | 1010.2 |
| 20260504205341 | 83 | 179 | 7.0 | 14.0 | 0.00 | 0.00 | 0.00 | 57 | 1010.2 |
| 20260504205242 | 83 | 120 | 5.0 | 14.0 | 0.00 | 0.00 | 0.00 | 57 | 1010.2 |
| 20260504205142 | 83 | 264 | 4.0 | 14.0 | 0.00 | 0.00 | 0.00 | 59 | 1010.3 |
| 20260504205040 | 83 | 118 | 5.0 | 14.0 | 0.00 | 0.00 | 0.00 | 59 | 1010.3 |
| 20260504204940 | 83 | 168 | 7.0 | 14.0 | 0.00 | 0.00 | 0.00 | 58 | 1010.2 |
| 20260504204841 | 83 | 113 | 8.0 | 18.0 | 0.00 | 0.00 | 0.00 | 57 | 1010.3 |
| 20260504204740 | 83 | 118 | 7.0 | 18.0 | 0.00 | 0.00 | 0.00 | 57 | 1010.1 |
| 20260504204641 | 83 | 121 | 6.0 | 18.0 | 0.00 | 0.00 | 0.00 | 57 | 1010.2 |
| 20260504204541 | 83 | 123 | 6.0 | 18.0 | 0.00 | 0.00 | 0.00 | 56 | 1010.2 |
| 20260504204440 | 84 | 4 | 8.0 | 18.0 | 0.00 | 0.00 | 0.00 | 55 | 1010.2 |
| 20260504204334 | 84 | 168 | 8.0 | 18.0 | 0.00 | 0.00 | 0.00 | 55 | 1010.3 |
| 20260504204234 | 85 | 157 | 6.0 | 18.0 | 0.00 | 0.00 | 0.00 | 56 | 1010.2 |
| 20260504204131 | 85 | 107 | 6.0 | 18.0 | 0.00 | 0.00 | 0.00 | 56 | 1010.3 |
| 20260504204030 | 85 | 250 | 7.0 | 18.0 | 0.00 | 0.00 | 0.00 | 56 | 1010.3 |
| 20260504203932 | 85 | 123 | 6.0 | 18.0 | 0.00 | 0.00 | 0.00 | 56 | 1010.2 |
| 20260504203832 | 84 | 103 | 4.0 | 13.0 | 0.00 | 0.00 | 0.00 | 55 | 1010.2 |
| 20260504203730 | 84 | 178 | 5.0 | 13.0 | 0.00 | 0.00 | 0.00 | 57 | 1010.2 |
| 20260504203631 | 83 | 125 | 5.0 | 13.0 | 0.00 | 0.00 | 0.00 | 57 | 1010.2 |
| 20260504203532 | 83 | 152 | 5.0 | 13.0 | 0.00 | 0.00 | 0.00 | 58 | 1010.2 |
| 20260504203431 | 83 | 149 | 5.0 | 13.0 | 0.00 | 0.00 | 0.00 | 57 | 1010.2 |
| 20260504203331 | 82 | 182 | 5.0 | 13.0 | 0.00 | 0.00 | 0.00 | 56 | 1010.2 |
| 20260504203232 | 83 | 195 | 6.0 | 13.0 | 0.00 | 0.00 | 0.00 | 56 | 1010.3 |
| 20260504203115 | 83 | 164 | 6.0 | 15.0 | 0.00 | 0.00 | 0.00 | 56 | 1010.4 |
| 20260504203015 | 83 | 245 | 6.0 | 15.0 | 0.00 | 0.00 | 0.00 | 55 | 1010.4 |
| 20260504202913 | 83 | 161 | 5.0 | 15.0 | 0.00 | 0.00 | 0.00 | 55 | 1010.5 |
| 20260504202810 | 84 | 212 | 6.0 | 15.0 | 0.00 | 0.00 | 0.00 | 55 | 1010.5 |
| 20260504202709 | 84 | 157 | 7.0 | 15.0 | 0.00 | 0.00 | 0.00 | 54 | 1010.5 |
| 20260504202607 | 85 | 204 | 5.0 | 15.0 | 0.00 | 0.00 | 0.00 | 54 | 1010.5 |
| 20260504202502 | 85 | 178 | 4.0 | 15.0 | 0.00 | 0.00 | 0.00 | 54 | 1010.5 |
| 20260504202403 | 85 | 141 | 5.0 | 15.0 | 0.00 | 0.00 | 0.00 | 54 | 1010.5 |
| 20260504202304 | 85 | 196 | 7.0 | 15.0 | 0.00 | 0.00 | 0.00 | 54 | 1010.6 |
| 20260504202203 | 85 | 226 | 8.0 | 15.0 | 0.00 | 0.00 | 0.00 | 54 | 1010.5 |
| 20260504202102 | 85 | 196 | 5.0 | 11.0 | 0.00 | 0.00 | 0.00 | 53 | 1010.5 |
| 20260504202003 | 85 | 224 | 4.0 | 11.0 | 0.00 | 0.00 | 0.00 | 56 | 1010.6 |
| 20260504201902 | 84 | 226 | 3.0 | 11.0 | 0.00 | 0.00 | 0.00 | 57 | 1010.7 |
| 20260504201803 | 83 | 241 | 3.0 | 11.0 | 0.00 | 0.00 | 0.00 | 56 | 1010.6 |
| 20260504201701 | 83 | 133 | 4.0 | 14.0 | 0.00 | 0.00 | 0.00 | 56 | 1010.6 |
| 20260504201603 | 82 | 145 | 4.0 | 14.0 | 0.00 | 0.00 | 0.00 | 58 | 1010.6 |
| 20260504201502 | 82 | 102 | 6.0 | 16.0 | 0.00 | 0.00 | 0.00 | 57 | 1010.7 |
| 20260504201402 | 82 | 165 | 5.0 | 16.0 | 0.00 | 0.00 | 0.00 | 57 | 1010.8 |
| 20260504201304 | 82 | 189 | 4.0 | 16.0 | 0.00 | 0.00 | 0.00 | 57 | 1010.8 |
| 20260504201203 | 82 | 96 | 5.0 | 16.0 | 0.00 | 0.00 | 0.00 | 57 | 1010.8 |
| 20260504201102 | 82 | 190 | 6.0 | 16.0 | 0.00 | 0.00 | 0.00 | 56 | 1010.8 |
| 20260504201002 | 82 | 133 | 5.0 | 16.0 | 0.00 | 0.00 | 0.00 | 56 | 1010.8 |
| 20260504200903 | 83 | 162 | 7.0 | 16.0 | 0.00 | 0.00 | 0.00 | 56 | 1010.8 |
| 20260504200802 | 83 | 195 | 8.0 | 16.0 | 0.00 | 0.00 | 0.00 | 54 | 1010.9 |
| 20260504200702 | 84 | 161 | 8.0 | 16.0 | 0.00 | 0.00 | 0.00 | 54 | 1010.9 |
| 20260504200604 | 84 | 159 | 8.0 | 16.0 | 0.00 | 0.00 | 0.00 | 55 | 1010.8 |
| 20260504200504 | 84 | 141 | 6.0 | 15.0 | 0.00 | 0.00 | 0.00 | 56 | 1010.8 |
| 20260504200401 | 84 | 159 | 6.0 | 15.0 | 0.00 | 0.00 | 0.00 | 57 | 1010.9 |
| 20260504200301 | 83 | 175 | 6.0 | 16.0 | 0.00 | 0.00 | 0.00 | 56 | 1010.9 |
| 20260504200204 | 83 | 168 | 6.0 | 16.0 | 0.00 | 0.00 | 0.00 | 57 | 1011.0 |
| 20260504200103 | 83 | 71 | 8.0 | 16.0 | 0.00 | 0.00 | 0.00 | 56 | 1010.9 |
| 20260504200004 | 82 | 123 | 8.0 | 16.0 | 0.00 | 0.00 | 0.00 | 56 | 1011.0 |
| 20260504195903 | 82 | 117 | 6.0 | 16.0 | 0.00 | 0.00 | 0.00 | 56 | 1011.0 |
| 20260504195803 | 82 | 180 | 6.0 | 16.0 | 0.00 | 0.00 | 0.00 | 56 | 1011.0 |
| 20260504195702 | 83 | 133 | 6.0 | 16.0 | 0.00 | 0.00 | 0.00 | 55 | 1011.1 |
| 20260504195603 | 83 | 193 | 6.0 | 16.0 | 0.00 | 0.00 | 0.00 | 55 | 1011.2 |
| 20260504195503 | 83 | 165 | 8.0 | 16.0 | 0.00 | 0.00 | 0.00 | 55 | 1011.1 |
| 20260504195402 | 84 | 162 | 8.0 | 16.0 | 0.00 | 0.00 | 0.00 | 53 | 1011.2 |
| 20260504195304 | 84 | 203 | 6.0 | 13.0 | 0.00 | 0.00 | 0.00 | 53 | 1011.2 |
| 20260504195202 | 84 | 148 | 6.0 | 13.0 | 0.00 | 0.00 | 0.00 | 53 | 1011.1 |
| 20260504195102 | 84 | 154 | 5.0 | 15.0 | 0.00 | 0.00 | 0.00 | 53 | 1011.0 |
| 20260504195003 | 84 | 209 | 5.0 | 15.0 | 0.00 | 0.00 | 0.00 | 53 | 1011.0 |
| 20260504194902 | 84 | 233 | 6.0 | 15.0 | 0.00 | 0.00 | 0.00 | 54 | 1011.0 |
| 20260504194802 | 84 | 164 | 6.0 | 15.0 | 0.00 | 0.00 | 0.00 | 53 | 1011.1 |
| 20260504194702 | 84 | 151 | 7.0 | 15.0 | 0.00 | 0.00 | 0.00 | 54 | 1011.0 |
| 20260504194603 | 84 | 172 | 7.0 | 15.0 | 0.00 | 0.00 | 0.00 | 54 | 1011.0 |
| 20260504194504 | 84 | 157 | 8.0 | 15.0 | 0.00 | 0.00 | 0.00 | 55 | 1011.1 |
| 20260504194402 | 84 | 140 | 7.0 | 15.0 | 0.00 | 0.00 | 0.00 | 55 | 1011.1 |
| 20260504194304 | 84 | 162 | 6.0 | 15.0 | 0.00 | 0.00 | 0.00 | 55 | 1011.1 |
| 20260504194203 | 83 | 58 | 7.0 | 15.0 | 0.00 | 0.00 | 0.00 | 56 | 1011.2 |
| 20260504194102 | 83 | 159 | 7.0 | 14.0 | 0.00 | 0.00 | 0.00 | 56 | 1011.2 |
| 20260504194003 | 83 | 178 | 7.0 | 14.0 | 0.00 | 0.00 | 0.00 | 56 | 1011.2 |
| 20260504193901 | 83 | 111 | 6.0 | 14.0 | 0.00 | 0.00 | 0.00 | 56 | 1011.2 |
| 20260504193802 | 83 | 52 | 6.0 | 14.0 | 0.00 | 0.00 | 0.00 | 55 | 1011.3 |
| 20260504193702 | 83 | 154 | 6.0 | 14.0 | 0.00 | 0.00 | 0.00 | 56 | 1011.3 |
| 20260504193602 | 83 | 169 | 6.0 | 14.0 | 0.00 | 0.00 | 0.00 | 55 | 1011.3 |
| 20260504193504 | 83 | 243 | 5.0 | 14.0 | 0.00 | 0.00 | 0.00 | 56 | 1011.3 |
| 20260504193403 | 83 | 193 | 6.0 | 14.0 | 0.00 | 0.00 | 0.00 | 55 | 1011.3 |
| 20260504193302 | 83 | 123 | 8.0 | 14.0 | 0.00 | 0.00 | 0.00 | 55 | 1011.3 |
| 20260504193203 | 83 | 179 | 7.0 | 14.0 | 0.00 | 0.00 | 0.00 | 56 | 1011.4 |
| 20260504193103 | 83 | 111 | 5.0 | 12.0 | 0.00 | 0.00 | 0.00 | 56 | 1011.3 |
| 20260504193004 | 83 | 128 | 4.0 | 12.0 | 0.00 | 0.00 | 0.00 | 55 | 1011.4 |
| 20260504192902 | 83 | 71 | 6.0 | 12.0 | 0.00 | 0.00 | 0.00 | 54 | 1011.5 |
| 20260504192803 | 83 | 148 | 7.0 | 12.0 | 0.00 | 0.00 | 0.00 | 53 | 1011.4 |
| 20260504192703 | 83 | 78 | 6.0 | 11.0 | 0.00 | 0.00 | 0.00 | 54 | 1011.4 |
| 20260504192602 | 84 | 135 | 4.0 | 10.0 | 0.00 | 0.00 | 0.00 | 53 | 1011.4 |
| 20260504192505 | 84 | 223 | 3.0 | 12.0 | 0.00 | 0.00 | 0.00 | 52 | 1011.4 |
| 20260504192404 | 84 | 186 | 4.0 | 12.0 | 0.00 | 0.00 | 0.00 | 54 | 1011.5 |
| 20260504192304 | 84 | 154 | 3.0 | 12.0 | 0.00 | 0.00 | 0.00 | 55 | 1011.5 |
| 20260504192202 | 83 | 82 | 4.0 | 12.0 | 0.00 | 0.00 | 0.00 | 56 | 1011.5 |
| 20260504192104 | 83 | 189 | 6.0 | 13.0 | 0.00 | 0.00 | 0.00 | 56 | 1011.5 |
| 20260504192002 | 83 | 148 | 6.0 | 13.0 | 0.00 | 0.00 | 0.00 | 56 | 1011.6 |
| 20260504191901 | 82 | 145 | 5.0 | 13.0 | 0.00 | 0.00 | 0.00 | 56 | 1011.7 |
| 20260504191801 | 82 | 213 | 5.0 | 13.0 | 0.00 | 0.00 | 0.00 | 56 | 1011.6 |
| 20260504191702 | 82 | 166 | 8.0 | 13.0 | 0.00 | 0.00 | 0.00 | 55 | 1011.7 |
| 20260504191601 | 82 | 171 | 8.0 | 14.0 | 0.00 | 0.00 | 0.00 | 55 | 1011.6 |
| 20260504191503 | 83 | 203 | 6.0 | 14.0 | 0.00 | 0.00 | 0.00 | 55 | 1011.7 |
| 20260504191403 | 83 | 173 | 6.0 | 14.0 | 0.00 | 0.00 | 0.00 | 54 | 1011.6 |
| 20260504191303 | 83 | 199 | 8.0 | 14.0 | 0.00 | 0.00 | 0.00 | 54 | 1011.6 |
| 20260504191202 | 83 | 228 | 7.0 | 14.0 | 0.00 | 0.00 | 0.00 | 54 | 1011.6 |
| 20260504191104 | 83 | 226 | 4.0 | 14.0 | 0.00 | 0.00 | 0.00 | 54 | 1011.8 |
| 20260504191002 | 83 | 243 | 5.0 | 14.0 | 0.00 | 0.00 | 0.00 | 55 | 1011.8 |
| 20260504190902 | 82 | 233 | 7.0 | 15.0 | 0.00 | 0.00 | 0.00 | 55 | 1011.7 |
| 20260504190804 | 83 | 221 | 8.0 | 15.0 | 0.00 | 0.00 | 0.00 | 54 | 1011.8 |
| 20260504190702 | 83 | 165 | 7.0 | 15.0 | 0.00 | 0.00 | 0.00 | 55 | 1011.9 |
| 20260504190603 | 83 | 165 | 6.0 | 15.0 | 0.00 | 0.00 | 0.00 | 55 | 1011.8 |
| 20260504190504 | 82 | 109 | 6.0 | 15.0 | 0.00 | 0.00 | 0.00 | 56 | 1011.8 |
| 20260504190404 | 82 | 154 | 7.0 | 15.0 | 0.00 | 0.00 | 0.00 | 55 | 1011.8 |
| 20260504190301 | 82 | 189 | 8.0 | 15.0 | 0.00 | 0.00 | 0.00 | 55 | 1011.8 |
| 20260504190200 | 82 | 189 | 9.0 | 15.0 | 0.00 | 0.00 | 0.00 | 55 | 1011.8 |
| 20260504190059 | 82 | 202 | 10.0 | 15.0 | 0.00 | 0.00 | 0.00 | 55 | 1011.8 |
| 20260504185956 | 82 | 203 | 9.0 | 17.0 | 0.00 | 0.00 | 0.00 | 56 | 1011.7 |
| 20260504185855 | 82 | 259 | 8.0 | 17.0 | 0.00 | 0.00 | 0.00 | 55 | 1011.8 |
| 20260504185754 | 82 | 234 | 9.0 | 17.0 | 0.00 | 0.00 | 0.00 | 54 | 1011.9 |
| 20260504185652 | 82 | 206 | 9.0 | 17.0 | 0.00 | 0.00 | 0.00 | 54 | 1011.8 |
| 20260504185551 | 82 | 227 | 9.0 | 17.0 | 0.00 | 0.00 | 0.00 | 53 | 1011.9 |
| 20260504185449 | 83 | 206 | 9.0 | 17.0 | 0.00 | 0.00 | 0.00 | 53 | 1011.9 |
| 20260504185348 | 83 | 190 | 8.0 | 17.0 | 0.00 | 0.00 | 0.00 | 53 | 1011.8 |
| 20260504185246 | 83 | 188 | 9.0 | 17.0 | 0.00 | 0.00 | 0.00 | 52 | 1011.9 |
| 20260504185146 | 83 | 214 | 9.0 | 17.0 | 0.00 | 0.00 | 0.00 | 52 | 1011.9 |
| 20260504185045 | 84 | 261 | 9.0 | 17.0 | 0.00 | 0.00 | 0.00 | 54 | 1011.9 |
| 20260504184944 | 84 | 224 | 7.0 | 16.0 | 0.00 | 0.00 | 0.00 | 53 | 1011.9 |
| 20260504184842 | 83 | 173 | 5.0 | 17.0 | 0.00 | 0.00 | 0.00 | 54 | 1011.9 |
| 20260504184740 | 84 | 109 | 4.0 | 17.0 | 0.00 | 0.00 | 0.00 | 53 | 1011.9 |
| 20260504184638 | 84 | 202 | 3.0 | 17.0 | 0.00 | 0.00 | 0.00 | 53 | 1011.9 |
| 20260504184540 | 84 | 117 | 3.0 | 17.0 | 0.00 | 0.00 | 0.00 | 55 | 1012.0 |
| 20260504184437 | 83 | 189 | 6.0 | 17.0 | 0.00 | 0.00 | 0.00 | 54 | 1012.0 |
| 20260504184339 | 83 | 117 | 6.0 | 17.0 | 0.00 | 0.00 | 0.00 | 55 | 1012.0 |
| 20260504184239 | 82 | 142 | 6.0 | 17.0 | 0.00 | 0.00 | 0.00 | 55 | 1012.0 |
| 20260504184138 | 82 | 107 | 8.0 | 17.0 | 0.00 | 0.00 | 0.00 | 54 | 1012.0 |
| 20260504184039 | 82 | 135 | 11.0 | 17.0 | 0.00 | 0.00 | 0.00 | 54 | 1012.0 |
| 20260504183938 | 82 | 161 | 10.0 | 17.0 | 0.00 | 0.00 | 0.00 | 54 | 1012.0 |
| 20260504183837 | 82 | 206 | 8.0 | 15.0 | 0.00 | 0.00 | 0.00 | 54 | 1012.0 |
| 20260504183737 | 82 | 210 | 7.0 | 13.0 | 0.00 | 0.00 | 0.00 | 55 | 1012.0 |
| 20260504183638 | 82 | 213 | 7.0 | 13.0 | 0.00 | 0.00 | 0.00 | 52 | 1012.0 |
| 20260504183537 | 82 | 202 | 7.0 | 13.0 | 0.00 | 0.00 | 0.00 | 52 | 1011.9 |
| 20260504183437 | 83 | 248 | 8.0 | 13.0 | 0.00 | 0.00 | 0.00 | 52 | 1012.0 |
| 20260504183337 | 83 | 235 | 8.0 | 13.0 | 0.00 | 0.00 | 0.00 | 51 | 1011.9 |
| 20260504183238 | 84 | 226 | 7.0 | 14.0 | 0.00 | 0.00 | 0.00 | 52 | 1012.0 |
| 20260504183137 | 84 | 214 | 6.0 | 14.0 | 0.00 | 0.00 | 0.00 | 54 | 1012.0 |
| 20260504183039 | 84 | 162 | 5.0 | 16.0 | 0.00 | 0.00 | 0.00 | 55 | 1011.9 |
| 20260504182938 | 83 | 106 | 4.0 | 16.0 | 0.00 | 0.00 | 0.00 | 56 | 1011.8 |
| 20260504182838 | 83 | 149 | 4.0 | 16.0 | 0.00 | 0.00 | 0.00 | 56 | 1011.8 |
| 20260504182737 | 82 | 276 | 4.0 | 16.0 | 0.00 | 0.00 | 0.00 | 54 | 1011.8 |
| 20260504182639 | 82 | 233 | 4.0 | 16.0 | 0.00 | 0.00 | 0.00 | 54 | 1011.9 |
| 20260504182537 | 82 | 220 | 4.0 | 16.0 | 0.00 | 0.00 | 0.00 | 54 | 1011.8 |
| 20260504182438 | 82 | 233 | 6.0 | 16.0 | 0.00 | 0.00 | 0.00 | 54 | 1011.9 |
| 20260504182335 | 82 | 227 | 8.0 | 16.0 | 0.00 | 0.00 | 0.00 | 54 | 1012.0 |
| 20260504182234 | 82 | 210 | 8.0 | 16.0 | 0.00 | 0.00 | 0.00 | 54 | 1012.1 |
| 20260504182132 | 82 | 162 | 9.0 | 16.0 | 0.00 | 0.00 | 0.00 | 55 | 1012.1 |
| 20260504182030 | 82 | 168 | 9.0 | 16.0 | 0.00 | 0.00 | 0.00 | 55 | 1012.1 |
| 20260504181932 | 81 | 178 | 8.0 | 16.0 | 0.00 | 0.00 | 0.00 | 56 | 1012.2 |
| 20260504181831 | 81 | 154 | 8.0 | 16.0 | 0.00 | 0.00 | 0.00 | 57 | 1012.2 |
| 20260504181730 | 81 | 165 | 7.0 | 16.0 | 0.00 | 0.00 | 0.00 | 58 | 1012.2 |
| 20260504181627 | 81 | 158 | 7.0 | 16.0 | 0.00 | 0.00 | 0.00 | 58 | 1012.2 |
| 20260504181526 | 80 | 172 | 6.0 | 16.0 | 0.00 | 0.00 | 0.00 | 58 | 1012.2 |
| 20260504181425 | 80 | 190 | 7.0 | 16.0 | 0.00 | 0.00 | 0.00 | 57 | 1012.3 |
| 20260504181323 | 81 | 203 | 10.0 | 16.0 | 0.00 | 0.00 | 0.00 | 56 | 1012.3 |
| 20260504181222 | 81 | 182 | 9.0 | 16.0 | 0.00 | 0.00 | 0.00 | 55 | 1012.3 |
| 20260504181120 | 82 | 142 | 7.0 | 16.0 | 0.00 | 0.00 | 0.00 | 56 | 1012.3 |
| 20260504181020 | 82 | 182 | 9.0 | 16.0 | 0.00 | 0.00 | 0.00 | 55 | 1012.3 |
| 20260504180918 | 82 | 193 | 8.0 | 16.0 | 0.00 | 0.00 | 0.00 | 56 | 1012.3 |
| 20260504180816 | 82 | 231 | 6.0 | 16.0 | 0.00 | 0.00 | 0.00 | 56 | 1012.3 |
| 20260504180715 | 82 | 61 | 7.0 | 16.0 | 0.00 | 0.00 | 0.00 | 56 | 1012.3 |
| 20260504180613 | 82 | 56 | 8.0 | 16.0 | 0.00 | 0.00 | 0.00 | 56 | 1012.3 |
| 20260504180513 | 82 | 172 | 8.0 | 16.0 | 0.00 | 0.00 | 0.00 | 55 | 1012.3 |
| 20260504180410 | 82 | 110 | 9.0 | 16.0 | 0.00 | 0.00 | 0.00 | 57 | 1012.4 |
| 20260504180309 | 81 | 168 | 7.0 | 16.0 | 0.00 | 0.00 | 0.00 | 57 | 1012.4 |
| 20260504180207 | 81 | 166 | 6.0 | 12.0 | 0.00 | 0.00 | 0.00 | 57 | 1012.4 |
| 20260504180106 | 81 | 209 | 8.0 | 12.0 | 0.00 | 0.00 | 0.00 | 57 | 1012.4 |
| 20260504180003 | 81 | 188 | 7.0 | 12.0 | 0.00 | 0.00 | 0.00 | 56 | 1012.5 |
| 20260504175904 | 82 | 151 | 6.0 | 11.0 | 0.00 | 0.00 | 0.00 | 57 | 1012.5 |
| 20260504175803 | 82 | 124 | 6.0 | 11.0 | 0.00 | 0.00 | 0.00 | 57 | 1012.6 |
| 20260504175702 | 82 | 124 | 5.0 | 11.0 | 0.00 | 0.00 | 0.00 | 57 | 1012.5 |
| 20260504175603 | 82 | 99 | 4.0 | 11.0 | 0.00 | 0.00 | 0.00 | 56 | 1012.6 |
| 20260504175503 | 82 | 165 | 4.0 | 11.0 | 0.00 | 0.00 | 0.00 | 58 | 1012.5 |
| 20260504175403 | 81 | 104 | 4.0 | 11.0 | 0.00 | 0.00 | 0.00 | 58 | 1012.5 |
| 20260504175304 | 81 | 197 | 5.0 | 11.0 | 0.00 | 0.00 | 0.00 | 57 | 1012.4 |
| 20260504175202 | 81 | 180 | 5.0 | 11.0 | 0.00 | 0.00 | 0.00 | 57 | 1012.6 |
| 20260504175102 | 81 | 220 | 4.0 | 11.0 | 0.00 | 0.00 | 0.00 | 59 | 1012.6 |
| 20260504175004 | 80 | 58 | 5.0 | 11.0 | 0.00 | 0.00 | 0.00 | 58 | 1012.6 |
| 20260504174904 | 80 | 203 | 5.0 | 15.0 | 0.00 | 0.00 | 0.00 | 57 | 1012.5 |
| 20260504174802 | 80 | 221 | 5.0 | 15.0 | 0.00 | 0.00 | 0.00 | 59 | 1012.6 |
| 20260504174702 | 80 | 223 | 4.0 | 15.0 | 0.00 | 0.00 | 0.00 | 60 | 1012.6 |
| 20260504174604 | 79 | 148 | 6.0 | 15.0 | 0.00 | 0.00 | 0.00 | 59 | 1012.6 |
| 20260504174503 | 79 | 123 | 8.0 | 15.0 | 0.00 | 0.00 | 0.00 | 58 | 1012.6 |
| 20260504174402 | 79 | 72 | 6.0 | 15.0 | 0.00 | 0.00 | 0.00 | 58 | 1012.6 |
| 20260504174302 | 80 | 162 | 6.0 | 15.0 | 0.00 | 0.00 | 0.00 | 57 | 1012.6 |
| 20260504174202 | 80 | 147 | 6.0 | 15.0 | 0.00 | 0.00 | 0.00 | 56 | 1012.7 |
| 20260504174102 | 80 | 87 | 6.0 | 15.0 | 0.00 | 0.00 | 0.00 | 57 | 1012.7 |
| 20260504174002 | 81 | 145 | 7.0 | 15.0 | 0.00 | 0.00 | 0.00 | 56 | 1012.7 |
| 20260504173904 | 81 | 172 | 6.0 | 14.0 | 0.00 | 0.00 | 0.00 | 56 | 1012.7 |
| 20260504173803 | 81 | 179 | 7.0 | 14.0 | 0.00 | 0.00 | 0.00 | 57 | 1012.7 |
| 20260504173702 | 81 | 123 | 6.0 | 14.0 | 0.00 | 0.00 | 0.00 | 56 | 1012.8 |
| 20260504173602 | 81 | 165 | 7.0 | 14.0 | 0.00 | 0.00 | 0.00 | 55 | 1012.8 |
| 20260504173504 | 81 | 158 | 8.0 | 14.0 | 0.00 | 0.00 | 0.00 | 56 | 1012.8 |
| 20260504173402 | 81 | 173 | 8.0 | 14.0 | 0.00 | 0.00 | 0.00 | 55 | 1012.8 |
| 20260504173303 | 82 | 186 | 7.0 | 16.0 | 0.00 | 0.00 | 0.00 | 55 | 1012.7 |
| 20260504173203 | 82 | 180 | 5.0 | 16.0 | 0.00 | 0.00 | 0.00 | 57 | 1012.8 |
| 20260504173102 | 81 | 255 | 6.0 | 16.0 | 0.00 | 0.00 | 0.00 | 57 | 1012.8 |
| 20260504173002 | 81 | 221 | 6.0 | 16.0 | 0.00 | 0.00 | 0.00 | 56 | 1012.9 |
| 20260504172903 | 81 | 209 | 5.0 | 16.0 | 0.00 | 0.00 | 0.00 | 56 | 1012.8 |
| 20260504172802 | 80 | 175 | 5.0 | 16.0 | 0.00 | 0.00 | 0.00 | 55 | 1012.8 |
| 20260504172703 | 81 | 185 | 5.0 | 16.0 | 0.00 | 0.00 | 0.00 | 55 | 1012.9 |
| 20260504172603 | 80 | 175 | 5.0 | 16.0 | 0.00 | 0.00 | 0.00 | 57 | 1013.0 |
| 20260504172505 | 80 | 206 | 10.0 | 16.0 | 0.00 | 0.00 | 0.00 | 57 | 1012.9 |
| 20260504172402 | 81 | 235 | 10.0 | 16.0 | 0.00 | 0.00 | 0.00 | 56 | 1013.0 |
| 20260504172303 | 81 | 224 | 7.0 | 16.0 | 0.00 | 0.00 | 0.00 | 57 | 1013.0 |
| 20260504172203 | 81 | 183 | 6.0 | 16.0 | 0.00 | 0.00 | 0.00 | 57 | 1013.0 |
| 20260504172102 | 80 | 135 | 7.0 | 16.0 | 0.00 | 0.00 | 0.00 | 57 | 1013.0 |
| 20260504172004 | 80 | 192 | 8.0 | 16.0 | 0.00 | 0.00 | 0.00 | 56 | 1013.1 |
| 20260504171902 | 80 | 197 | 6.0 | 16.0 | 0.00 | 0.00 | 0.00 | 57 | 1013.1 |
| 20260504171802 | 80 | 212 | 7.0 | 15.0 | 0.00 | 0.00 | 0.00 | 56 | 1013.1 |
| 20260504171703 | 80 | 183 | 9.0 | 15.0 | 0.00 | 0.00 | 0.00 | 56 | 1013.1 |
| 20260504171603 | 80 | 203 | 9.0 | 15.0 | 0.00 | 0.00 | 0.00 | 56 | 1013.2 |
| 20260504171506 | 80 | 206 | 7.0 | 15.0 | 0.00 | 0.00 | 0.00 | 55 | 1013.1 |
| 20260504171403 | 80 | 159 | 7.0 | 14.0 | 0.00 | 0.00 | 0.00 | 55 | 1013.1 |
| 20260504171303 | 80 | 164 | 8.0 | 15.0 | 0.00 | 0.00 | 0.00 | 54 | 1013.1 |
| 20260504171204 | 81 | 130 | 8.0 | 15.0 | 0.00 | 0.00 | 0.00 | 55 | 1013.2 |
| 20260504171103 | 81 | 161 | 7.0 | 15.0 | 0.00 | 0.00 | 0.00 | 56 | 1013.2 |
| 20260504171002 | 81 | 165 | 7.0 | 15.0 | 0.00 | 0.00 | 0.00 | 56 | 1013.1 |
| 20260504170903 | 80 | 192 | 7.0 | 15.0 | 0.00 | 0.00 | 0.00 | 56 | 1013.2 |
| 20260504170804 | 80 | 158 | 8.0 | 15.0 | 0.00 | 0.00 | 0.00 | 57 | 1013.3 |
| 20260504170701 | 80 | 176 | 7.0 | 15.0 | 0.00 | 0.00 | 0.00 | 57 | 1013.2 |
| 20260504170602 | 80 | 172 | 5.0 | 15.0 | 0.00 | 0.00 | 0.00 | 57 | 1013.1 |
| 20260504170505 | 80 | 134 | 5.0 | 15.0 | 0.00 | 0.00 | 0.00 | 57 | 1013.1 |
| 20260504170404 | 80 | 309 | 6.0 | 15.0 | 0.00 | 0.00 | 0.00 | 57 | 1013.1 |
| 20260504170303 | 80 | 195 | 7.0 | 14.0 | 0.00 | 0.00 | 0.00 | 58 | 1013.1 |
| 20260504170202 | 80 | 238 | 9.0 | 14.0 | 0.00 | 0.00 | 0.00 | 58 | 1013.3 |
| 20260504170104 | 80 | 199 | 9.0 | 14.0 | 0.00 | 0.00 | 0.00 | 57 | 1013.2 |
| 20260504160434 | 78 | 103 | 5.0 | 14.0 | 0.00 | 0.00 | 0.00 | 62 | 1014.0 |
| 20260504160334 | 78 | 204 | 7.0 | 15.0 | 0.00 | 0.00 | 0.00 | 61 | 1014.0 |
| 20260504160233 | 78 | 212 | 5.0 | 15.0 | 0.00 | 0.00 | 0.00 | 63 | 1014.0 |
| 20260504160134 | 78 | 164 | 4.0 | 15.0 | 0.00 | 0.00 | 0.00 | 63 | 1014.0 |
| 20260504151127 | 75 | 134 | 7.0 | 15.0 | 0.00 | 0.00 | 0.00 | 65 | 1014.2 |
| 20260504151026 | 75 | 102 | 9.0 | 16.0 | 0.00 | 0.00 | 0.00 | 65 | 1014.2 |
| 20260504150925 | 75 | 152 | 9.0 | 16.0 | 0.00 | 0.00 | 0.00 | 64 | 1014.2 |
| 20260504150824 | 75 | 104 | 8.0 | 16.0 | 0.00 | 0.00 | 0.00 | 65 | 1014.2 |
| 20260504150721 | 76 | 75 | 8.0 | 16.0 | 0.00 | 0.00 | 0.00 | 64 | 1014.1 |
| 20260504150621 | 75 | 190 | 6.0 | 16.0 | 0.00 | 0.00 | 0.00 | 65 | 1014.2 |
| 20260504150519 | 75 | 195 | 5.0 | 16.0 | 0.00 | 0.00 | 0.00 | 65 | 1014.1 |
| 20260504150415 | 75 | 190 | 6.0 | 16.0 | 0.00 | 0.00 | 0.00 | 65 | 1014.2 |
| 20260504150315 | 75 | 226 | 7.0 | 16.0 | 0.00 | 0.00 | 0.00 | 65 | 1014.2 |
| 20260504150215 | 75 | 243 | 9.0 | 16.0 | 0.00 | 0.00 | 0.00 | 64 | 1014.2 |
| 20260504150115 | 75 | 189 | 10.0 | 16.0 | 0.00 | 0.00 | 0.00 | 64 | 1014.3 |
| 20260504141332 | 72 | 159 | 4.0 | 10.0 | 0.00 | 0.00 | 0.00 | 67 | 1014.1 |
| 20260504141232 | 72 | 207 | 5.0 | 10.0 | 0.00 | 0.00 | 0.00 | 67 | 1014.1 |
| 20260504141131 | 72 | 175 | 5.0 | 10.0 | 0.00 | 0.00 | 0.00 | 67 | 1014.1 |
| 20260504141031 | 72 | 166 | 6.0 | 10.0 | 0.00 | 0.00 | 0.00 | 67 | 1014.0 |
| 20260504140933 | 72 | 183 | 6.0 | 10.0 | 0.00 | 0.00 | 0.00 | 67 | 1014.0 |
| 20260504140832 | 72 | 158 | 6.0 | 10.0 | 0.00 | 0.00 | 0.00 | 67 | 1014.1 |
| 20260504140731 | 72 | 171 | 4.0 | 9.0 | 0.00 | 0.00 | 0.00 | 67 | 1014.0 |
| 20260504140632 | 72 | 103 | 4.0 | 9.0 | 0.00 | 0.00 | 0.00 | 67 | 1014.1 |
| 20260504140530 | 72 | 173 | 5.0 | 10.0 | 0.00 | 0.00 | 0.00 | 67 | 1014.1 |
| 20260504140431 | 72 | 152 | 4.0 | 12.0 | 0.00 | 0.00 | 0.00 | 67 | 1014.2 |
| 20260504140331 | 71 | 175 | 3.0 | 12.0 | 0.00 | 0.00 | 0.00 | 68 | 1014.2 |
| 20260504140232 | 71 | 130 | 2.0 | 12.0 | 0.00 | 0.00 | 0.00 | 68 | 1014.2 |
| 20260504140131 | 71 | 75 | 3.0 | 12.0 | 0.00 | 0.00 | 0.00 | 68 | 1014.1 |
| 20260504130731 | 67 | 141 | 1.0 | 4.0 | 0.00 | 0.00 | 0.00 | 75 | 1014.3 |
| 20260504130630 | 66 | 131 | 1.0 | 5.0 | 0.00 | 0.00 | 0.00 | 75 | 1014.2 |
| 20260504130531 | 66 | 116 | 2.0 | 5.0 | 0.00 | 0.00 | 0.00 | 75 | 1014.3 |
| 20260504130431 | 66 | 166 | 2.0 | 5.0 | 0.00 | 0.00 | 0.00 | 75 | 1014.2 |
| 20260504130331 | 66 | 130 | 2.0 | 5.0 | 0.00 | 0.00 | 0.00 | 75 | 1014.3 |
| 20260504130230 | 66 | 130 | 2.0 | 5.0 | 0.00 | 0.00 | 0.00 | 75 | 1014.2 |
| 20260504130131 | 66 | 134 | 3.0 | 5.0 | 0.00 | 0.00 | 0.00 | 75 | 1014.3 |
| 20260504120303 | 62 | 32 | 0.0 | 0.0 | 0.00 | 0.00 | 0.00 | 80 | 1013.9 |
| 20260504120202 | 62 | 30 | 0.0 | 0.0 | 0.00 | 0.00 | 0.00 | 80 | 1013.8 |
| 20260504110629 | 61 | 30 | 0.0 | 0.0 | 0.00 | 0.00 | 0.00 | 80 | 1013.7 |
| 20260504110527 | 61 | 30 | 0.0 | 0.0 | 0.00 | 0.00 | 0.00 | 80 | 1013.7 |
| 20260504110428 | 61 | 28 | 0.0 | 0.0 | 0.00 | 0.00 | 0.00 | 80 | 1013.7 |
| 20260504110327 | 61 | 28 | 0.0 | 0.0 | 0.00 | 0.00 | 0.00 | 80 | 1013.7 |
| 20260504110229 | 61 | 28 | 0.0 | 0.0 | 0.00 | 0.00 | 0.00 | 80 | 1013.7 |
| 20260504110126 | 61 | 28 | 0.0 | 0.0 | 0.00 | 0.00 | 0.00 | 80 | 1013.8 |
| 20260504100526 | 61 | 25 | 1.0 | 4.0 | 0.00 | 0.00 | 0.00 | 80 | 1013.8 |
| 20260504100425 | 61 | 30 | 2.0 | 4.0 | 0.00 | 0.00 | 0.00 | 80 | 1013.9 |
| 20260504100326 | 61 | 24 | 2.0 | 4.0 | 0.00 | 0.00 | 0.00 | 80 | 1013.9 |
| 20260504100225 | 61 | 30 | 0.0 | 4.0 | 0.00 | 0.00 | 0.00 | 80 | 1013.9 |
| 20260504100127 | 61 | 25 | 0.0 | 1.0 | 0.00 | 0.00 | 0.00 | 80 | 1014.0 |
| 20260504090126 | 61 | 41 | 0.0 | 0.0 | 0.00 | 0.00 | 0.00 | 81 | 1014.4 |
| 20260504082004 | 61 | 35 | 0.0 | 0.0 | 0.00 | 0.00 | 0.00 | 80 | 1014.6 |
| 20260504081903 | 61 | 35 | 0.0 | 0.0 | 0.00 | 0.00 | 0.00 | 80 | 1014.5 |
| 20260504081802 | 61 | 35 | 0.0 | 0.0 | 0.00 | 0.00 | 0.00 | 80 | 1014.6 |
| 20260504081701 | 62 | 35 | 0.0 | 0.0 | 0.00 | 0.00 | 0.00 | 80 | 1014.7 |
| 20260504081602 | 61 | 37 | 0.0 | 0.0 | 0.00 | 0.00 | 0.00 | 80 | 1014.7 |
| 20260504081505 | 61 | 37 | 0.0 | 0.0 | 0.00 | 0.00 | 0.00 | 80 | 1014.7 |
| 20260504081404 | 62 | 35 | 0.0 | 0.0 | 0.00 | 0.00 | 0.00 | 80 | 1014.7 |
| 20260504081302 | 61 | 37 | 0.0 | 0.0 | 0.00 | 0.00 | 0.00 | 80 | 1014.8 |
| 20260504081204 | 61 | 35 | 0.0 | 0.0 | 0.00 | 0.00 | 0.00 | 80 | 1014.7 |
| 20260504081103 | 61 | 35 | 0.0 | 0.0 | 0.00 | 0.00 | 0.00 | 80 | 1014.6 |
| 20260504081003 | 61 | 35 | 0.0 | 0.0 | 0.00 | 0.00 | 0.00 | 80 | 1014.7 |
| 20260504080901 | 61 | 35 | 0.0 | 0.0 | 0.00 | 0.00 | 0.00 | 80 | 1014.6 |
| 20260504080803 | 62 | 35 | 0.0 | 0.0 | 0.00 | 0.00 | 0.00 | 79 | 1014.6 |
| 20260504080702 | 61 | 35 | 0.0 | 0.0 | 0.00 | 0.00 | 0.00 | 79 | 1014.6 |
| 20260504080602 | 62 | 35 | 0.0 | 0.0 | 0.00 | 0.00 | 0.00 | 79 | 1014.7 |
| 20260504080502 | 62 | 35 | 0.0 | 0.0 | 0.00 | 0.00 | 0.00 | 79 | 1014.8 |
| 20260504080403 | 62 | 35 | 0.0 | 0.0 | 0.00 | 0.00 | 0.00 | 79 | 1014.8 |
| 20260504080303 | 62 | 34 | 0.0 | 0.0 | 0.00 | 0.00 | 0.00 | 79 | 1014.8 |
| 20260504080203 | 62 | 37 | 0.0 | 0.0 | 0.00 | 0.00 | 0.00 | 79 | 1014.9 |